Wetterdaten: Dienstag, 08.08.2023
Datum Zeit Temp. Aussen Temp. o. S. Temp +5cm Feuchte Auss Luftdruck Regen Sonnenschein Regendauer Solar Windben Empfang
08.08.2023 00:00 14,7 C 13,9 C 10,6 C 87 % 1016,5 hPa 0,0 l/m 0 min 0 min 0 W/m 0,0 km/h (0 Bft) 97,87 %
08.08.2023 00:02 14,7 C 13,9 C 10,6 C 87 % 1016,5 hPa 0,0 l/m 0 min 0 min 0 W/m 3,2 km/h (1 Bft) 92,50 %
08.08.2023 00:04 14,7 C 13,9 C 10,6 C 87 % 1016,5 hPa 0,0 l/m 0 min 0 min 0 W/m 3,2 km/h (1 Bft) 95,83 %
08.08.2023 00:08 14,7 C 13,9 C 10,6 C 87 % 1016,4 hPa 0,0 l/m 0 min 0 min 0 W/m 6,4 km/h (2 Bft) 96,81 %
08.08.2023 00:12 14,7 C 13,9 C 10,6 C 87 % 1016,4 hPa 0,0 l/m 0 min 0 min 0 W/m 3,2 km/h (1 Bft) 94,87 %
08.08.2023 00:14 14,7 C 13,9 C 10,6 C 87 % 1016,3 hPa 0,0 l/m 0 min 0 min 0 W/m 3,2 km/h (1 Bft) 93,62 %
08.08.2023 00:16 14,7 C 13,9 C 10,6 C 87 % 1016,3 hPa 0,0 l/m 0 min 0 min 0 W/m 3,2 km/h (1 Bft) 98,00 %
08.08.2023 00:18 14,7 C 13,9 C 10,6 C 87 % 1016,3 hPa 0,0 l/m 0 min 0 min 0 W/m 3,2 km/h (1 Bft) 97,37 %
08.08.2023 00:20 14,6 C 13,9 C 10,6 C 86 % 1016,3 hPa 0,0 l/m 0 min 0 min 0 W/m 3,2 km/h (1 Bft) 98,00 %
08.08.2023 00:22 14,6 C 13,9 C 10,6 C 86 % 1016,3 hPa 0,0 l/m 0 min 0 min 0 W/m 3,2 km/h (1 Bft) 97,87 %
08.08.2023 00:24 14,6 C 13,9 C 10,6 C 87 % 1016,3 hPa 0,0 l/m 0 min 0 min 0 W/m 6,4 km/h (2 Bft) 95,74 %
08.08.2023 00:26 14,6 C 13,9 C 10,6 C 87 % 1016,3 hPa 0,0 l/m 0 min 0 min 0 W/m 0,0 km/h (0 Bft) 97,83 %
08.08.2023 00:28 14,6 C 13,9 C 10,6 C 87 % 1016,3 hPa 0,0 l/m 0 min 0 min 0 W/m 3,2 km/h (1 Bft) 97,87 %
08.08.2023 00:30 14,6 C 13,9 C 10,6 C 87 % 1016,3 hPa 0,0 l/m 0 min 0 min 0 W/m 3,2 km/h (1 Bft) 96,36 %
08.08.2023 00:32 14,6 C 13,9 C 10,6 C 87 % 1016,3 hPa 0,0 l/m 0 min 0 min 0 W/m 3,2 km/h (1 Bft) 97,87 %
08.08.2023 00:34 14,7 C 13,9 C 10,6 C 87 % 1016,3 hPa 0,0 l/m 0 min 0 min 0 W/m 3,2 km/h (1 Bft) 97,87 %
08.08.2023 00:36 14,7 C 13,9 C 10,6 C 87 % 1016,3 hPa 0,0 l/m 0 min 0 min 0 W/m 0,0 km/h (0 Bft) 97,83 %
08.08.2023 00:38 14,7 C 13,9 C 10,6 C 87 % 1016,2 hPa 0,0 l/m 0 min 0 min 0 W/m 6,4 km/h (2 Bft) 97,87 %
08.08.2023 00:40 14,7 C 13,9 C 10,6 C 87 % 1016,3 hPa 0,0 l/m 0 min 0 min 0 W/m 6,4 km/h (2 Bft) 100,00 %
08.08.2023 00:42 14,7 C 13,9 C 10,6 C 87 % 1016,3 hPa 0,0 l/m 0 min 0 min 0 W/m 3,2 km/h (1 Bft) 97,87 %
08.08.2023 00:44 14,7 C 13,9 C 10,6 C 87 % 1016,3 hPa 0,0 l/m 0 min 0 min 0 W/m 3,2 km/h (1 Bft) 100,00 %
08.08.2023 00:46 14,7 C 13,9 C 10,6 C 87 % 1016,3 hPa 0,0 l/m 0 min 0 min 0 W/m 3,2 km/h (1 Bft) 100,00 %
08.08.2023 00:48 14,7 C 13,9 C 10,6 C 87 % 1016,2 hPa 0,0 l/m 0 min 0 min 0 W/m 3,2 km/h (1 Bft) 97,87 %
08.08.2023 00:50 14,7 C 13,9 C 10,6 C 87 % 1016,2 hPa 0,0 l/m 0 min 0 min 0 W/m 6,4 km/h (2 Bft) 100,00 %
08.08.2023 00:52 14,7 C 13,9 C 10,6 C 87 % 1016,2 hPa 0,0 l/m 0 min 0 min 0 W/m 3,2 km/h (1 Bft) 97,83 %
08.08.2023 00:54 14,7 C 13,9 C 10,6 C 87 % 1016,2 hPa 0,0 l/m 0 min 0 min 0 W/m 6,4 km/h (2 Bft) 100,00 %
08.08.2023 00:56 14,7 C 13,9 C 10,6 C 87 % 1016,2 hPa 0,0 l/m 0 min 0 min 0 W/m 9,7 km/h (2 Bft) 100,00 %
08.08.2023 00:58 14,7 C 13,9 C 10,6 C 87 % 1016,2 hPa 0,0 l/m 0 min 0 min 0 W/m 6,4 km/h (2 Bft) 97,87 %
08.08.2023 01:00 14,7 C 13,9 C 10,6 C 87 % 1016,2 hPa 0,0 l/m 0 min 0 min 0 W/m 3,2 km/h (1 Bft) 100,00 %
08.08.2023 01:02 14,7 C 13,9 C 10,6 C 86 % 1016,2 hPa 0,0 l/m 0 min 0 min 0 W/m 6,4 km/h (2 Bft) 93,62 %
08.08.2023 01:04 14,7 C 13,9 C 10,6 C 86 % 1016,1 hPa 0,0 l/m 0 min 0 min 0 W/m 9,7 km/h (2 Bft) 97,56 %
08.08.2023 01:06 14,7 C 13,9 C 10,6 C 86 % 1016,2 hPa 0,0 l/m 0 min 0 min 0 W/m 6,4 km/h (2 Bft) 98,11 %
08.08.2023 01:08 14,7 C 13,9 C 10,6 C 86 % 1016,2 hPa 0,0 l/m 0 min 0 min 0 W/m 6,4 km/h (2 Bft) 97,22 %
08.08.2023 01:10 14,7 C 13,9 C 10,6 C 86 % 1016,2 hPa 0,0 l/m 0 min 0 min 0 W/m 6,4 km/h (2 Bft) 97,87 %
08.08.2023 01:12 14,7 C 13,9 C 10,6 C 86 % 1016,2 hPa 0,0 l/m 0 min 0 min 0 W/m 3,2 km/h (1 Bft) 95,74 %
08.08.2023 01:14 14,7 C 13,9 C 10,6 C 86 % 1016,1 hPa 0,0 l/m 0 min 0 min 0 W/m 6,4 km/h (2 Bft) 95,74 %
08.08.2023 01:16 14,7 C 13,9 C 10,6 C 86 % 1016,1 hPa 0,0 l/m 0 min 0 min 0 W/m 9,7 km/h (2 Bft) 93,62 %
08.08.2023 01:18 14,6 C 13,9 C 10,6 C 86 % 1016,1 hPa 0,0 l/m 0 min 0 min 0 W/m 6,4 km/h (2 Bft) 93,62 %
08.08.2023 01:20 14,7 C 13,9 C 10,6 C 86 % 1016,0 hPa 0,0 l/m 0 min 0 min 0 W/m 6,4 km/h (2 Bft) 95,74 %
08.08.2023 01:22 14,6 C 13,9 C 10,6 C 86 % 1016,0 hPa 0,0 l/m 0 min 0 min 0 W/m 9,7 km/h (2 Bft) 93,62 %
08.08.2023 01:24 14,6 C 13,9 C 10,6 C 86 % 1016,0 hPa 0,0 l/m 0 min 0 min 0 W/m 6,4 km/h (2 Bft) 95,65 %
08.08.2023 01:26 14,6 C 13,9 C 10,6 C 86 % 1015,9 hPa 0,0 l/m 0 min 0 min 0 W/m 9,7 km/h (2 Bft) 93,62 %
08.08.2023 01:28 14,6 C 13,9 C 10,6 C 86 % 1015,9 hPa 0,0 l/m 0 min 0 min 0 W/m 3,2 km/h (1 Bft) 95,74 %
08.08.2023 01:30 14,6 C 13,9 C 10,6 C 86 % 1015,9 hPa 0,0 l/m 0 min 0 min 0 W/m 9,7 km/h (2 Bft) 100,00 %
08.08.2023 01:32 14,6 C 13,9 C 10,6 C 86 % 1015,8 hPa 0,0 l/m 0 min 0 min 0 W/m 9,7 km/h (2 Bft) 95,74 %
08.08.2023 01:34 14,6 C 13,9 C 10,6 C 85 % 1015,8 hPa 0,0 l/m 0 min 0 min 0 W/m 9,7 km/h (2 Bft) 97,87 %
08.08.2023 01:36 14,6 C 13,9 C 10,6 C 85 % 1015,8 hPa 0,0 l/m 0 min 0 min 0 W/m 6,4 km/h (2 Bft) 93,62 %
08.08.2023 01:38 14,6 C 13,9 C 10,6 C 85 % 1015,8 hPa 0,0 l/m 0 min 0 min 0 W/m 6,4 km/h (2 Bft) 97,83 %
08.08.2023 01:40 14,6 C 13,9 C 10,6 C 85 % 1015,8 hPa 0,0 l/m 0 min 0 min 0 W/m 12,9 km/h (3 Bft) 97,87 %
08.08.2023 01:42 14,6 C 13,9 C 10,6 C 85 % 1015,8 hPa 0,0 l/m 0 min 0 min 0 W/m 12,9 km/h (3 Bft) 97,87 %
08.08.2023 01:44 14,6 C 13,9 C 10,6 C 85 % 1015,8 hPa 0,0 l/m 0 min 0 min 0 W/m 9,7 km/h (2 Bft) 95,74 %
08.08.2023 01:46 14,5 C 13,9 C 10,6 C 85 % 1015,8 hPa 0,0 l/m 0 min 0 min 0 W/m 6,4 km/h (2 Bft) 97,87 %
08.08.2023 01:48 14,5 C 13,9 C 10,6 C 85 % 1015,7 hPa 0,0 l/m 0 min 0 min 0 W/m 9,7 km/h (2 Bft) 97,87 %
08.08.2023 01:50 14,5 C 13,9 C 10,0 C 85 % 1015,7 hPa 0,0 l/m 0 min 0 min 0 W/m 6,4 km/h (2 Bft) 95,65 %
08.08.2023 01:52 14,5 C 13,9 C 10,0 C 85 % 1015,7 hPa 0,0 l/m 0 min 0 min 0 W/m 9,7 km/h (2 Bft) 97,87 %
08.08.2023 01:54 14,4 C 13,3 C 10,0 C 85 % 1015,7 hPa 0,0 l/m 0 min 0 min 0 W/m 9,7 km/h (2 Bft) 95,74 %
08.08.2023 01:56 14,4 C 13,9 C 10,0 C 85 % 1015,7 hPa 0,0 l/m 0 min 0 min 0 W/m 6,4 km/h (2 Bft) 100,00 %
08.08.2023 01:58 14,4 C 13,3 C 10,0 C 85 % 1015,7 hPa 0,0 l/m 0 min 0 min 0 W/m 12,9 km/h (3 Bft) 100,00 %
08.08.2023 02:00 14,3 C 13,3 C 10,0 C 85 % 1015,7 hPa 0,0 l/m 0 min 0 min 0 W/m 9,7 km/h (2 Bft) 100,00 %
08.08.2023 02:02 14,3 C 13,3 C 10,0 C 85 % 1015,6 hPa 0,0 l/m 0 min 0 min 0 W/m 12,9 km/h (3 Bft) 100,00 %
08.08.2023 02:04 14,3 C 13,9 C 10,0 C 85 % 1015,6 hPa 0,0 l/m 0 min 0 min 0 W/m 12,9 km/h (3 Bft) 100,00 %
08.08.2023 02:06 14,3 C 13,3 C 10,0 C 85 % 1015,6 hPa 0,0 l/m 0 min 0 min 0 W/m 12,9 km/h (3 Bft) 100,00 %
08.08.2023 02:08 14,3 C 13,3 C 10,0 C 85 % 1015,6 hPa 0,0 l/m 0 min 0 min 0 W/m 12,9 km/h (3 Bft) 100,00 %
08.08.2023 02:10 14,3 C 13,3 C 10,0 C 85 % 1015,5 hPa 0,0 l/m 0 min 0 min 0 W/m 16,1 km/h (3 Bft) 100,00 %
08.08.2023 02:17 14,3 C 13,3 C 10,0 C 85 % 1015,5 hPa 0,0 l/m 0 min 0 min 0 W/m 12,9 km/h (3 Bft) 100,00 %
08.08.2023 02:18 14,3 C 13,3 C 10,0 C 85 % 1015,5 hPa 0,0 l/m 0 min 0 min 0 W/m 3,2 km/h (1 Bft) 95,65 %
08.08.2023 02:20 14,3 C 13,3 C 10,0 C 85 % 1015,4 hPa 0,0 l/m 0 min 0 min 0 W/m 12,9 km/h (3 Bft) 100,00 %
08.08.2023 02:22 14,3 C 13,3 C 10,0 C 85 % 1015,4 hPa 0,0 l/m 0 min 0 min 0 W/m 16,1 km/h (3 Bft) 100,00 %
08.08.2023 02:24 14,3 C 13,3 C 10,0 C 85 % 1015,4 hPa 0,0 l/m 0 min 0 min 0 W/m 9,7 km/h (2 Bft) 97,87 %
08.08.2023 02:26 14,3 C 13,3 C 10,0 C 86 % 1015,4 hPa 0,0 l/m 0 min 0 min 0 W/m 6,4 km/h (2 Bft) 100,00 %
08.08.2023 02:28 14,3 C 13,3 C 10,0 C 86 % 1015,4 hPa 0,0 l/m 0 min 0 min 0 W/m 6,4 km/h (2 Bft) 100,00 %
08.08.2023 02:30 14,3 C 13,3 C 10,0 C 86 % 1015,3 hPa 0,0 l/m 0 min 0 min 0 W/m 6,4 km/h (2 Bft) 100,00 %
08.08.2023 02:32 14,3 C 13,3 C 10,0 C 86 % 1015,3 hPa 0,0 l/m 0 min 0 min 0 W/m 6,4 km/h (2 Bft) 100,00 %
08.08.2023 02:34 14,3 C 13,3 C 10,0 C 86 % 1015,3 hPa 0,0 l/m 0 min 0 min 0 W/m 16,1 km/h (3 Bft) 100,00 %
08.08.2023 02:36 14,3 C 13,3 C 10,0 C 86 % 1015,3 hPa 0,0 l/m 0 min 0 min 0 W/m 12,9 km/h (3 Bft) 100,00 %
08.08.2023 02:38 14,2 C 13,3 C 10,0 C 86 % 1015,3 hPa 0,0 l/m 0 min 0 min 0 W/m 6,4 km/h (2 Bft) 97,87 %
08.08.2023 02:40 14,3 C 13,3 C 10,0 C 86 % 1015,3 hPa 0,0 l/m 0 min 0 min 0 W/m 9,7 km/h (2 Bft) 97,87 %
08.08.2023 02:42 14,2 C 13,3 C 10,0 C 86 % 1015,4 hPa 0,0 l/m 0 min 0 min 0 W/m 6,4 km/h (2 Bft) 100,00 %
08.08.2023 02:44 14,2 C 13,3 C 10,0 C 86 % 1015,4 hPa 0,0 l/m 0 min 0 min 0 W/m 9,7 km/h (2 Bft) 100,00 %
08.08.2023 02:46 14,2 C 13,3 C 10,0 C 86 % 1015,4 hPa 0,0 l/m 0 min 0 min 0 W/m 6,4 km/h (2 Bft) 97,87 %
08.08.2023 02:48 14,1 C 13,3 C 10,0 C 86 % 1015,4 hPa 0,0 l/m 0 min 0 min 0 W/m 6,4 km/h (2 Bft) 97,87 %
08.08.2023 02:50 14,1 C 13,3 C 10,0 C 86 % 1015,4 hPa 0,0 l/m 0 min 0 min 0 W/m 6,4 km/h (2 Bft) 97,87 %
08.08.2023 02:52 14,1 C 13,3 C 10,0 C 86 % 1015,4 hPa 0,0 l/m 0 min 0 min 0 W/m 6,4 km/h (2 Bft) 97,87 %
08.08.2023 02:54 14,1 C 13,3 C 10,0 C 86 % 1015,3 hPa 0,0 l/m 0 min 0 min 0 W/m 16,1 km/h (3 Bft) 97,87 %
08.08.2023 02:56 14,1 C 13,3 C 10,0 C 86 % 1015,3 hPa 0,0 l/m 0 min 0 min 0 W/m 6,4 km/h (2 Bft) 95,74 %
08.08.2023 02:58 14,1 C 13,3 C 10,0 C 87 % 1015,3 hPa 0,0 l/m 0 min 0 min 0 W/m 6,4 km/h (2 Bft) 93,62 %
08.08.2023 03:00 14,0 C 13,3 C 10,0 C 87 % 1015,3 hPa 0,0 l/m 0 min 0 min 0 W/m 9,7 km/h (2 Bft) 95,65 %
08.08.2023 03:02 14,0 C 12,8 C 9,4 C 87 % 1015,3 hPa 0,0 l/m 0 min 0 min 0 W/m 9,7 km/h (2 Bft) 95,74 %
08.08.2023 03:04 14,0 C 12,8 C 9,4 C 87 % 1015,3 hPa 0,0 l/m 0 min 0 min 0 W/m 6,4 km/h (2 Bft) 95,74 %
08.08.2023 03:06 14,0 C 12,8 C 9,4 C 87 % 1015,3 hPa 0,0 l/m 0 min 0 min 0 W/m 3,2 km/h (1 Bft) 55,32 %
08.08.2023 03:08 13,9 C 12,8 C 9,4 C 87 % 1015,3 hPa 0,0 l/m 0 min 0 min 0 W/m 12,9 km/h (3 Bft) 93,75 %
08.08.2023 03:10 13,9 C 12,8 C 9,4 C 87 % 1015,3 hPa 0,0 l/m 0 min 0 min 0 W/m 6,4 km/h (2 Bft) 95,74 %
08.08.2023 03:12 13,9 C 12,8 C 9,4 C 87 % 1015,3 hPa 0,0 l/m 0 min 0 min 0 W/m 6,4 km/h (2 Bft) 95,74 %
08.08.2023 03:14 13,8 C 12,8 C 9,4 C 87 % 1015,3 hPa 0,0 l/m 0 min 0 min 0 W/m 9,7 km/h (2 Bft) 95,65 %
08.08.2023 03:16 13,8 C 12,8 C 9,4 C 87 % 1015,4 hPa 0,0 l/m 0 min 0 min 0 W/m 9,7 km/h (2 Bft) 93,62 %
08.08.2023 03:18 13,8 C 12,8 C 9,4 C 87 % 1015,4 hPa 0,0 l/m 0 min 0 min 0 W/m 6,4 km/h (2 Bft) 97,87 %
08.08.2023 03:20 13,8 C 12,8 C 9,4 C 87 % 1015,4 hPa 0,0 l/m 0 min 0 min 0 W/m 19,3 km/h (3 Bft) 97,87 %
08.08.2023 03:22 13,8 C 12,8 C 9,4 C 87 % 1015,4 hPa 0,0 l/m 0 min 0 min 0 W/m 12,9 km/h (3 Bft) 95,74 %
08.08.2023 03:24 13,8 C 12,8 C 9,4 C 88 % 1015,4 hPa 0,0 l/m 0 min 0 min 0 W/m 12,9 km/h (3 Bft) 97,87 %
08.08.2023 03:26 13,8 C 12,8 C 9,4 C 88 % 1015,3 hPa 0,0 l/m 0 min 0 min 0 W/m 12,9 km/h (3 Bft) 95,74 %
08.08.2023 03:28 13,8 C 12,8 C 9,4 C 88 % 1015,3 hPa 0,0 l/m 0 min 0 min 0 W/m 6,4 km/h (2 Bft) 95,65 %
08.08.2023 03:30 13,7 C 12,8 C 9,4 C 88 % 1015,3 hPa 0,0 l/m 0 min 0 min 0 W/m 9,7 km/h (2 Bft) 93,62 %
08.08.2023 03:32 13,7 C 12,8 C 9,4 C 88 % 1015,3 hPa 0,0 l/m 0 min 0 min 0 W/m 9,7 km/h (2 Bft) 97,87 %
08.08.2023 03:34 13,7 C 12,8 C 9,4 C 88 % 1015,2 hPa 0,0 l/m 0 min 0 min 0 W/m 6,4 km/h (2 Bft) 95,74 %
08.08.2023 03:36 13,7 C 12,8 C 9,4 C 88 % 1015,2 hPa 0,0 l/m 0 min 0 min 0 W/m 12,9 km/h (3 Bft) 97,87 %
08.08.2023 03:38 13,7 C 12,8 C 9,4 C 88 % 1015,3 hPa 0,0 l/m 0 min 0 min 0 W/m 12,9 km/h (3 Bft) 91,49 %
08.08.2023 03:40 13,7 C 12,8 C 9,4 C 88 % 1015,2 hPa 0,0 l/m 0 min 0 min 0 W/m 12,9 km/h (3 Bft) 97,87 %
08.08.2023 03:42 13,7 C 12,8 C 9,4 C 88 % 1015,1 hPa 0,0 l/m 0 min 0 min 0 W/m 12,9 km/h (3 Bft) 97,83 %
08.08.2023 03:44 13,7 C 12,8 C 9,4 C 88 % 1015,2 hPa 0,0 l/m 0 min 0 min 0 W/m 16,1 km/h (3 Bft) 95,74 %
08.08.2023 03:46 13,7 C 12,8 C 9,4 C 88 % 1015,1 hPa 0,0 l/m 0 min 0 min 0 W/m 9,7 km/h (2 Bft) 95,74 %
08.08.2023 03:48 13,7 C 12,8 C 9,4 C 88 % 1015,1 hPa 0,0 l/m 0 min 0 min 0 W/m 9,7 km/h (2 Bft) 95,74 %
08.08.2023 03:50 13,7 C 12,8 C 9,4 C 88 % 1015,1 hPa 0,0 l/m 0 min 0 min 0 W/m 12,9 km/h (3 Bft) 91,49 %
08.08.2023 03:52 13,7 C 12,8 C 9,4 C 88 % 1015,1 hPa 0,0 l/m 0 min 0 min 0 W/m 6,4 km/h (2 Bft) 97,87 %
08.08.2023 03:54 13,7 C 12,8 C 9,4 C 88 % 1015,0 hPa 0,0 l/m 0 min 0 min 0 W/m 12,9 km/h (3 Bft) 97,87 %
08.08.2023 03:56 13,7 C 12,8 C 9,4 C 88 % 1015,0 hPa 0,0 l/m 0 min 0 min 0 W/m 3,2 km/h (1 Bft) 97,83 %
08.08.2023 03:58 13,7 C 12,8 C 9,4 C 88 % 1015,0 hPa 0,0 l/m 0 min 0 min 0 W/m 12,9 km/h (3 Bft) 97,87 %
08.08.2023 04:00 13,7 C 12,8 C 9,4 C 88 % 1015,1 hPa 0,0 l/m 0 min 0 min 0 W/m 6,4 km/h (2 Bft) 97,87 %
08.08.2023 04:02 13,7 C 12,8 C 9,4 C 88 % 1015,0 hPa 0,0 l/m 0 min 0 min 0 W/m 16,1 km/h (3 Bft) 97,87 %
08.08.2023 04:04 13,7 C 12,8 C 9,4 C 88 % 1015,0 hPa 0,0 l/m 0 min 0 min 0 W/m 16,1 km/h (3 Bft) 97,67 %
08.08.2023 04:06 13,7 C 12,8 C 9,4 C 88 % 1015,0 hPa 0,0 l/m 0 min 0 min 0 W/m 16,1 km/h (3 Bft) 97,87 %
08.08.2023 04:08 13,7 C 12,8 C 9,4 C 88 % 1015,0 hPa 0,0 l/m 0 min 0 min 0 W/m 9,7 km/h (2 Bft) 95,74 %
08.08.2023 04:10 13,6 C 12,8 C 9,4 C 88 % 1015,0 hPa 0,0 l/m 0 min 0 min 0 W/m 6,4 km/h (2 Bft) 97,87 %
08.08.2023 04:12 13,6 C 12,8 C 9,4 C 88 % 1015,0 hPa 0,0 l/m 0 min 0 min 0 W/m 9,7 km/h (2 Bft) 95,65 %
08.08.2023 04:14 13,6 C 12,8 C 9,4 C 88 % 1015,1 hPa 0,0 l/m 0 min 0 min 0 W/m 6,4 km/h (2 Bft) 97,87 %
08.08.2023 04:16 13,6 C 12,8 C 9,4 C 88 % 1015,0 hPa 0,0 l/m 0 min 0 min 0 W/m 12,9 km/h (3 Bft) 97,87 %
08.08.2023 04:18 13,6 C 12,8 C 9,4 C 88 % 1015,0 hPa 0,0 l/m 0 min 0 min 0 W/m 16,1 km/h (3 Bft) 97,87 %
08.08.2023 04:20 13,6 C 12,8 C 9,4 C 88 % 1015,0 hPa 0,0 l/m 0 min 0 min 0 W/m 16,1 km/h (3 Bft) 97,87 %
08.08.2023 04:22 13,6 C 12,8 C 9,4 C 88 % 1015,0 hPa 0,0 l/m 0 min 0 min 0 W/m 12,9 km/h (3 Bft) 97,87 %
08.08.2023 04:24 13,6 C 12,8 C 9,4 C 88 % 1015,0 hPa 0,0 l/m 0 min 0 min 0 W/m 12,9 km/h (3 Bft) 95,74 %
08.08.2023 04:26 13,6 C 12,8 C 9,4 C 88 % 1014,9 hPa 0,0 l/m 0 min 0 min 0 W/m 6,4 km/h (2 Bft) 95,65 %
08.08.2023 04:28 13,6 C 12,8 C 9,4 C 88 % 1014,9 hPa 0,0 l/m 0 min 0 min 0 W/m 9,7 km/h (2 Bft) 97,87 %
08.08.2023 04:30 13,5 C 12,8 C 9,4 C 89 % 1014,9 hPa 0,0 l/m 0 min 0 min 0 W/m 16,1 km/h (3 Bft) 100,00 %
08.08.2023 04:32 13,5 C 12,8 C 9,4 C 89 % 1014,9 hPa 0,0 l/m 0 min 0 min 0 W/m 3,2 km/h (1 Bft) 100,00 %
08.08.2023 04:34 13,5 C 12,8 C 9,4 C 89 % 1015,0 hPa 0,0 l/m 0 min 0 min 0 W/m 9,7 km/h (2 Bft) 97,87 %
08.08.2023 04:36 13,5 C 12,8 C 9,4 C 89 % 1014,9 hPa 0,0 l/m 0 min 0 min 0 W/m 12,9 km/h (3 Bft) 95,74 %
08.08.2023 04:38 13,5 C 12,8 C 9,4 C 89 % 1014,9 hPa 0,0 l/m 0 min 0 min 0 W/m 9,7 km/h (2 Bft) 97,87 %
08.08.2023 04:40 13,5 C 12,8 C 9,4 C 89 % 1014,8 hPa 0,0 l/m 0 min 0 min 0 W/m 6,4 km/h (2 Bft) 98,11 %
08.08.2023 04:42 13,5 C 12,8 C 9,4 C 89 % 1014,8 hPa 0,0 l/m 0 min 0 min 0 W/m 16,1 km/h (3 Bft) 97,87 %
08.08.2023 04:44 13,5 C 12,8 C 9,4 C 89 % 1014,8 hPa 0,0 l/m 0 min 0 min 0 W/m 6,4 km/h (2 Bft) 97,87 %
08.08.2023 04:46 13,5 C 12,8 C 9,4 C 89 % 1014,8 hPa 0,0 l/m 0 min 0 min 0 W/m 12,9 km/h (3 Bft) 95,74 %
08.08.2023 04:48 13,5 C 12,8 C 9,4 C 89 % 1014,7 hPa 0,0 l/m 0 min 0 min 0 W/m 12,9 km/h (3 Bft) 97,87 %
08.08.2023 04:50 13,5 C 12,8 C 9,4 C 89 % 1014,7 hPa 0,0 l/m 0 min 0 min 0 W/m 6,4 km/h (2 Bft) 97,83 %
08.08.2023 04:52 13,5 C 12,8 C 9,4 C 89 % 1014,7 hPa 0,0 l/m 0 min 0 min 0 W/m 12,9 km/h (3 Bft) 95,74 %
08.08.2023 04:54 13,6 C 12,8 C 9,4 C 89 % 1014,7 hPa 0,0 l/m 0 min 0 min 0 W/m 6,4 km/h (2 Bft) 95,74 %
08.08.2023 04:56 13,6 C 12,8 C 9,4 C 89 % 1014,7 hPa 0,0 l/m 0 min 0 min 0 W/m 12,9 km/h (3 Bft) 97,87 %
08.08.2023 04:58 13,6 C 12,8 C 9,4 C 89 % 1014,7 hPa 0,0 l/m 0 min 0 min 0 W/m 9,7 km/h (2 Bft) 97,87 %
08.08.2023 05:00 13,6 C 12,8 C 9,4 C 89 % 1014,7 hPa 0,0 l/m 0 min 0 min 0 W/m 12,9 km/h (3 Bft) 97,87 %
08.08.2023 05:02 13,6 C 12,8 C 9,4 C 90 % 1014,6 hPa 0,0 l/m 0 min 0 min 0 W/m 9,7 km/h (2 Bft) 100,00 %
08.08.2023 05:04 13,6 C 12,8 C 9,4 C 90 % 1014,7 hPa 0,0 l/m 0 min 0 min 0 W/m 6,4 km/h (2 Bft) 97,62 %
08.08.2023 05:06 13,6 C 12,8 C 9,4 C 90 % 1014,7 hPa 0,0 l/m 0 min 0 min 0 W/m 12,9 km/h (3 Bft) 100,00 %
08.08.2023 05:08 13,6 C 12,8 C 9,4 C 90 % 1014,6 hPa 0,0 l/m 0 min 0 min 0 W/m 9,7 km/h (2 Bft) 100,00 %
08.08.2023 05:10 13,6 C 12,8 C 9,4 C 90 % 1014,7 hPa 0,0 l/m 0 min 0 min 0 W/m 6,4 km/h (2 Bft) 100,00 %
08.08.2023 05:12 13,6 C 12,8 C 9,4 C 90 % 1014,7 hPa 0,0 l/m 0 min 0 min 0 W/m 16,1 km/h (3 Bft) 100,00 %
08.08.2023 05:14 13,6 C 12,8 C 9,4 C 90 % 1014,7 hPa 0,0 l/m 0 min 0 min 0 W/m 12,9 km/h (3 Bft) 100,00 %
08.08.2023 05:16 13,6 C 12,8 C 9,4 C 90 % 1014,7 hPa 0,0 l/m 0 min 0 min 0 W/m 6,4 km/h (2 Bft) 100,00 %
08.08.2023 05:18 13,6 C 12,8 C 9,4 C 90 % 1014,7 hPa 0,0 l/m 0 min 0 min 0 W/m 6,4 km/h (2 Bft) 100,00 %
08.08.2023 05:20 13,6 C 12,8 C 9,4 C 90 % 1014,6 hPa 0,0 l/m 0 min 0 min 0 W/m 16,1 km/h (3 Bft) 100,00 %
08.08.2023 05:22 13,6 C 12,8 C 9,4 C 90 % 1014,7 hPa 0,0 l/m 0 min 0 min 0 W/m 12,9 km/h (3 Bft) 97,83 %
08.08.2023 05:24 13,6 C 12,8 C 9,4 C 90 % 1014,7 hPa 0,0 l/m 0 min 0 min 0 W/m 16,1 km/h (3 Bft) 100,00 %
08.08.2023 05:26 13,6 C 12,8 C 9,4 C 90 % 1014,6 hPa 0,0 l/m 0 min 0 min 0 W/m 16,1 km/h (3 Bft) 100,00 %
08.08.2023 05:28 13,6 C 12,8 C 9,4 C 90 % 1014,6 hPa 0,0 l/m 0 min 0 min 0 W/m 6,4 km/h (2 Bft) 97,87 %
08.08.2023 05:30 13,6 C 12,8 C 9,4 C 90 % 1014,6 hPa 0,0 l/m 0 min 0 min 0 W/m 3,2 km/h (1 Bft) 100,00 %
08.08.2023 05:32 13,6 C 12,8 C 9,4 C 90 % 1014,6 hPa 0,0 l/m 0 min 0 min 0 W/m 12,9 km/h (3 Bft) 100,00 %
08.08.2023 05:34 13,5 C 12,8 C 9,4 C 90 % 1014,6 hPa 0,0 l/m 0 min 0 min 0 W/m 6,4 km/h (2 Bft) 100,00 %
08.08.2023 05:36 13,5 C 12,8 C 9,4 C 90 % 1014,7 hPa 0,0 l/m 0 min 0 min 0 W/m 9,7 km/h (2 Bft) 100,00 %
08.08.2023 05:38 13,5 C 12,8 C 9,4 C 90 % 1014,6 hPa 0,0 l/m 0 min 0 min 0 W/m 3,2 km/h (1 Bft) 100,00 %
08.08.2023 05:40 13,4 C 12,8 C 9,4 C 90 % 1014,7 hPa 0,0 l/m 0 min 0 min 0 W/m 12,9 km/h (3 Bft) 100,00 %
08.08.2023 05:42 13,4 C 12,8 C 9,4 C 90 % 1014,7 hPa 0,0 l/m 0 min 0 min 0 W/m 6,4 km/h (2 Bft) 100,00 %
08.08.2023 05:44 13,4 C 12,8 C 9,4 C 90 % 1014,7 hPa 0,0 l/m 0 min 0 min 0 W/m 6,4 km/h (2 Bft) 100,00 %
08.08.2023 05:46 13,4 C 12,2 C 9,4 C 90 % 1014,7 hPa 0,0 l/m 0 min 0 min 0 W/m 16,1 km/h (3 Bft) 100,00 %
08.08.2023 05:48 13,3 C 12,2 C 9,4 C 90 % 1014,7 hPa 0,0 l/m 0 min 0 min 0 W/m 6,4 km/h (2 Bft) 100,00 %
08.08.2023 05:50 13,3 C 12,2 C 8,9 C 91 % 1014,7 hPa 0,0 l/m 0 min 0 min 0 W/m 6,4 km/h (2 Bft) 97,87 %
08.08.2023 05:52 13,3 C 12,2 C 8,9 C 91 % 1014,6 hPa 0,0 l/m 0 min 0 min 0 W/m 3,2 km/h (1 Bft) 97,87 %
08.08.2023 05:54 13,3 C 12,2 C 8,9 C 91 % 1014,6 hPa 0,0 l/m 0 min 0 min 0 W/m 12,9 km/h (3 Bft) 100,00 %
08.08.2023 05:56 13,3 C 12,2 C 8,9 C 91 % 1014,6 hPa 0,0 l/m 0 min 0 min 0 W/m 9,7 km/h (2 Bft) 100,00 %
08.08.2023 05:58 13,2 C 12,2 C 8,9 C 91 % 1014,6 hPa 0,0 l/m 0 min 0 min 0 W/m 9,7 km/h (2 Bft) 100,00 %
08.08.2023 06:00 13,2 C 12,2 C 8,9 C 91 % 1014,6 hPa 0,0 l/m 0 min 0 min 0 W/m 3,2 km/h (1 Bft) 100,00 %
08.08.2023 06:02 13,2 C 12,2 C 8,9 C 91 % 1014,6 hPa 0,0 l/m 0 min 0 min 0 W/m 12,9 km/h (3 Bft) 97,87 %
08.08.2023 06:04 13,2 C 12,2 C 8,9 C 91 % 1014,5 hPa 0,0 l/m 0 min 0 min 0 W/m 6,4 km/h (2 Bft) 98,08 %
08.08.2023 06:08 13,2 C 12,2 C 9,4 C 91 % 1014,5 hPa 0,0 l/m 0 min 0 min 0 W/m 16,1 km/h (3 Bft) 95,74 %
08.08.2023 06:10 13,2 C 12,2 C 9,4 C 92 % 1014,5 hPa 0,0 l/m 0 min 0 min 0 W/m 9,7 km/h (2 Bft) 97,87 %
08.08.2023 06:12 13,2 C 12,2 C 9,4 C 92 % 1014,6 hPa 0,0 l/m 0 min 0 min 0 W/m 12,9 km/h (3 Bft) 95,74 %
08.08.2023 06:14 13,2 C 12,2 C 9,4 C 92 % 1014,5 hPa 0,0 l/m 0 min 0 min 0 W/m 16,1 km/h (3 Bft) 97,87 %
08.08.2023 06:16 13,2 C 12,2 C 9,4 C 92 % 1014,5 hPa 0,0 l/m 0 min 0 min 0 W/m 9,7 km/h (2 Bft) 93,62 %
08.08.2023 06:18 13,2 C 12,2 C 9,4 C 92 % 1014,5 hPa 0,0 l/m 0 min 0 min 0 W/m 12,9 km/h (3 Bft) 95,74 %
08.08.2023 06:20 13,2 C 12,2 C 9,4 C 92 % 1014,5 hPa 0,0 l/m 0 min 0 min 5 W/m 22,5 km/h (4 Bft) 97,83 %
08.08.2023 06:22 13,2 C 12,2 C 9,4 C 92 % 1014,5 hPa 0,0 l/m 0 min 0 min 6 W/m 12,9 km/h (3 Bft) 95,74 %
08.08.2023 06:24 13,2 C 12,2 C 9,4 C 92 % 1014,5 hPa 0,0 l/m 0 min 0 min 7 W/m 6,4 km/h (2 Bft) 91,49 %
08.08.2023 06:26 13,2 C 12,2 C 9,4 C 92 % 1014,5 hPa 0,0 l/m 0 min 0 min 8 W/m 16,1 km/h (3 Bft) 91,49 %
08.08.2023 06:28 13,2 C 12,2 C 9,4 C 92 % 1014,4 hPa 0,0 l/m 0 min 0 min 9 W/m 12,9 km/h (3 Bft) 91,49 %
08.08.2023 06:30 13,2 C 12,2 C 9,4 C 92 % 1014,4 hPa 0,0 l/m 0 min 0 min 9 W/m 9,7 km/h (2 Bft) 91,49 %
08.08.2023 06:32 13,2 C 12,2 C 9,4 C 93 % 1014,4 hPa 0,0 l/m 0 min 0 min 11 W/m 12,9 km/h (3 Bft) 93,62 %
08.08.2023 06:34 13,2 C 12,2 C 9,4 C 93 % 1014,4 hPa 0,0 l/m 0 min 0 min 12 W/m 16,1 km/h (3 Bft) 93,48 %
08.08.2023 06:36 13,2 C 12,8 C 9,4 C 93 % 1014,4 hPa 0,0 l/m 0 min 0 min 13 W/m 12,9 km/h (3 Bft) 93,62 %
08.08.2023 06:38 13,2 C 12,8 C 9,4 C 93 % 1014,4 hPa 0,0 l/m 0 min 0 min 14 W/m 6,4 km/h (2 Bft) 93,62 %
08.08.2023 06:40 13,2 C 12,8 C 9,4 C 93 % 1014,5 hPa 0,0 l/m 0 min 0 min 14 W/m 12,9 km/h (3 Bft) 93,62 %
08.08.2023 06:42 13,2 C 12,8 C 9,4 C 93 % 1014,5 hPa 0,0 l/m 0 min 0 min 16 W/m 6,4 km/h (2 Bft) 93,62 %
08.08.2023 06:44 13,2 C 12,8 C 9,4 C 93 % 1014,4 hPa 0,0 l/m 0 min 0 min 16 W/m 6,4 km/h (2 Bft) 93,62 %
08.08.2023 06:46 13,3 C 12,8 C 9,4 C 93 % 1014,5 hPa 0,0 l/m 0 min 0 min 19 W/m 9,7 km/h (2 Bft) 92,31 %
08.08.2023 06:48 13,3 C 12,8 C 9,4 C 93 % 1014,4 hPa 0,0 l/m 0 min 0 min 21 W/m 9,7 km/h (2 Bft) 93,62 %
08.08.2023 06:50 13,3 C 12,8 C 9,4 C 93 % 1014,4 hPa 0,0 l/m 0 min 0 min 21 W/m 6,4 km/h (2 Bft) 93,62 %
08.08.2023 06:52 13,3 C 12,8 C 9,4 C 93 % 1014,5 hPa 0,0 l/m 0 min 0 min 22 W/m 12,9 km/h (3 Bft) 92,00 %
08.08.2023 06:54 13,3 C 12,8 C 9,4 C 93 % 1014,5 hPa 0,0 l/m 0 min 0 min 21 W/m 16,1 km/h (3 Bft) 100,00 %
08.08.2023 06:56 13,3 C 12,8 C 9,4 C 93 % 1014,5 hPa 0,0 l/m 0 min 0 min 21 W/m 12,9 km/h (3 Bft) 96,00 %
08.08.2023 06:58 13,3 C 12,8 C 9,4 C 93 % 1014,4 hPa 0,0 l/m 0 min 0 min 20 W/m 6,4 km/h (2 Bft) 97,87 %
08.08.2023 07:00 13,3 C 12,8 C 9,4 C 93 % 1014,4 hPa 0,0 l/m 0 min 0 min 18 W/m 12,9 km/h (3 Bft) 95,45 %
08.08.2023 07:02 13,3 C 12,8 C 9,4 C 93 % 1014,4 hPa 0,0 l/m 0 min 0 min 16 W/m 9,7 km/h (2 Bft) 97,87 %
08.08.2023 07:04 13,4 C 12,8 C 9,4 C 93 % 1014,5 hPa 0,0 l/m 0 min 0 min 17 W/m 6,4 km/h (2 Bft) 95,12 %
08.08.2023 07:06 13,4 C 12,8 C 9,4 C 94 % 1014,4 hPa 0,0 l/m 0 min 0 min 19 W/m 9,7 km/h (2 Bft) 98,31 %
08.08.2023 07:08 13,4 C 12,8 C 9,4 C 94 % 1014,4 hPa 0,0 l/m 0 min 0 min 21 W/m 9,7 km/h (2 Bft) 97,14 %
08.08.2023 07:10 13,4 C 12,8 C 9,4 C 93 % 1014,4 hPa 0,0 l/m 0 min 0 min 16 W/m 9,7 km/h (2 Bft) 100,00 %
08.08.2023 07:12 13,4 C 12,8 C 9,4 C 93 % 1014,4 hPa 0,0 l/m 0 min 0 min 15 W/m 9,7 km/h (2 Bft) 100,00 %
08.08.2023 07:14 13,5 C 12,8 C 9,4 C 93 % 1014,5 hPa 0,0 l/m 0 min 0 min 18 W/m 9,7 km/h (2 Bft) 100,00 %
08.08.2023 07:16 13,5 C 12,8 C 9,4 C 93 % 1014,5 hPa 0,0 l/m 0 min 0 min 20 W/m 16,1 km/h (3 Bft) 100,00 %
08.08.2023 07:18 13,5 C 12,8 C 9,4 C 93 % 1014,4 hPa 0,0 l/m 0 min 0 min 23 W/m 6,4 km/h (2 Bft) 100,00 %
08.08.2023 07:20 13,6 C 13,3 C 9,4 C 93 % 1014,5 hPa 0,0 l/m 0 min 0 min 26 W/m 9,7 km/h (2 Bft) 100,00 %
08.08.2023 07:22 13,6 C 13,3 C 9,4 C 94 % 1014,5 hPa 0,0 l/m 0 min 0 min 29 W/m 6,4 km/h (2 Bft) 100,00 %
08.08.2023 07:24 13,6 C 13,3 C 10,0 C 93 % 1014,5 hPa 0,0 l/m 0 min 0 min 24 W/m 9,7 km/h (2 Bft) 100,00 %
08.08.2023 07:26 13,6 C 13,3 C 10,0 C 93 % 1014,4 hPa 0,0 l/m 0 min 0 min 23 W/m 9,7 km/h (2 Bft) 100,00 %
08.08.2023 07:28 13,6 C 13,3 C 10,0 C 94 % 1014,4 hPa 0,0 l/m 0 min 0 min 22 W/m 9,7 km/h (2 Bft) 100,00 %
08.08.2023 07:30 13,6 C 13,3 C 10,0 C 94 % 1014,4 hPa 0,0 l/m 0 min 0 min 19 W/m 9,7 km/h (2 Bft) 100,00 %
08.08.2023 07:32 13,7 C 13,3 C 10,0 C 94 % 1014,4 hPa 0,0 l/m 0 min 0 min 31 W/m 12,9 km/h (3 Bft) 100,00 %
08.08.2023 07:34 13,7 C 13,3 C 10,0 C 94 % 1014,5 hPa 0,0 l/m 0 min 0 min 44 W/m 6,4 km/h (2 Bft) 100,00 %
08.08.2023 07:36 13,7 C 13,3 C 10,0 C 94 % 1014,5 hPa 0,0 l/m 0 min 0 min 45 W/m 19,3 km/h (3 Bft) 100,00 %
08.08.2023 07:38 13,7 C 13,3 C 10,0 C 94 % 1014,5 hPa 0,0 l/m 0 min 0 min 60 W/m 12,9 km/h (3 Bft) 100,00 %
08.08.2023 07:40 13,8 C 13,3 C 10,0 C 94 % 1014,5 hPa 0,0 l/m 0 min 0 min 68 W/m 12,9 km/h (3 Bft) 97,87 %
08.08.2023 07:42 13,8 C 13,3 C 10,0 C 94 % 1014,5 hPa 0,0 l/m 0 min 0 min 59 W/m 12,9 km/h (3 Bft) 100,00 %
08.08.2023 07:44 13,8 C 13,3 C 10,0 C 93 % 1014,5 hPa 0,0 l/m 0 min 0 min 40 W/m 16,1 km/h (3 Bft) 100,00 %
08.08.2023 07:46 13,8 C 13,3 C 10,0 C 93 % 1014,4 hPa 0,0 l/m 0 min 0 min 35 W/m 12,9 km/h (3 Bft) 100,00 %
08.08.2023 07:48 13,9 C 13,3 C 10,0 C 93 % 1014,4 hPa 0,0 l/m 0 min 0 min 24 W/m 19,3 km/h (3 Bft) 100,00 %
08.08.2023 07:50 13,9 C 13,3 C 10,0 C 93 % 1014,4 hPa 0,0 l/m 0 min 0 min 22 W/m 12,9 km/h (3 Bft) 100,00 %
08.08.2023 07:52 13,9 C 13,3 C 10,0 C 93 % 1014,5 hPa 0,0 l/m 0 min 0 min 29 W/m 12,9 km/h (3 Bft) 100,00 %
08.08.2023 07:54 13,9 C 13,3 C 10,0 C 93 % 1014,5 hPa 0,0 l/m 0 min 0 min 39 W/m 16,1 km/h (3 Bft) 100,00 %
08.08.2023 07:56 13,9 C 13,3 C 10,0 C 93 % 1014,5 hPa 0,0 l/m 0 min 0 min 45 W/m 12,9 km/h (3 Bft) 100,00 %
08.08.2023 07:58 13,9 C 13,3 C 10,0 C 93 % 1014,5 hPa 0,0 l/m 0 min 0 min 39 W/m 6,4 km/h (2 Bft) 100,00 %
08.08.2023 08:00 13,9 C 13,3 C 10,0 C 93 % 1014,6 hPa 0,0 l/m 0 min 0 min 29 W/m 16,1 km/h (3 Bft) 100,00 %
08.08.2023 08:02 14,0 C 13,3 C 10,0 C 93 % 1014,5 hPa 0,0 l/m 0 min 0 min 37 W/m 16,1 km/h (3 Bft) 100,00 %
08.08.2023 08:04 14,0 C 13,3 C 10,0 C 93 % 1014,5 hPa 0,0 l/m 0 min 0 min 51 W/m 9,7 km/h (2 Bft) 100,00 %
08.08.2023 08:06 14,0 C 13,3 C 10,0 C 93 % 1014,6 hPa 0,0 l/m 0 min 0 min 60 W/m 16,1 km/h (3 Bft) 100,00 %
08.08.2023 08:08 14,0 C 13,3 C 10,0 C 93 % 1014,6 hPa 0,0 l/m 0 min 0 min 66 W/m 16,1 km/h (3 Bft) 100,00 %
08.08.2023 08:10 14,0 C 13,9 C 10,0 C 93 % 1014,6 hPa 0,0 l/m 0 min 0 min 78 W/m 12,9 km/h (3 Bft) 100,00 %
08.08.2023 08:12 14,1 C 13,9 C 10,0 C 93 % 1014,6 hPa 0,0 l/m 0 min 0 min 83 W/m 9,7 km/h (2 Bft) 100,00 %
08.08.2023 08:14 14,1 C 13,9 C 10,6 C 93 % 1014,6 hPa 0,0 l/m 0 min 0 min 97 W/m 9,7 km/h (2 Bft) 100,00 %
08.08.2023 08:16 14,1 C 13,9 C 10,6 C 93 % 1014,6 hPa 0,0 l/m 0 min 0 min 75 W/m 16,1 km/h (3 Bft) 97,83 %
08.08.2023 08:18 14,1 C 13,9 C 10,6 C 93 % 1014,6 hPa 0,0 l/m 0 min 0 min 69 W/m 16,1 km/h (3 Bft) 97,87 %
08.08.2023 08:20 14,1 C 13,9 C 10,6 C 92 % 1014,7 hPa 0,0 l/m 0 min 0 min 74 W/m 12,9 km/h (3 Bft) 97,87 %
08.08.2023 08:22 14,2 C 13,9 C 10,6 C 92 % 1014,7 hPa 0,0 l/m 0 min 0 min 95 W/m 22,5 km/h (4 Bft) 95,74 %
08.08.2023 08:24 14,2 C 13,9 C 10,6 C 92 % 1014,7 hPa 0,0 l/m 0 min 0 min 79 W/m 22,5 km/h (4 Bft) 97,87 %
08.08.2023 08:26 14,2 C 13,9 C 10,6 C 92 % 1014,7 hPa 0,0 l/m 0 min 0 min 55 W/m 16,1 km/h (3 Bft) 97,87 %
08.08.2023 08:28 14,2 C 13,9 C 10,6 C 92 % 1014,7 hPa 0,0 l/m 0 min 0 min 78 W/m 12,9 km/h (3 Bft) 97,87 %
08.08.2023 08:30 14,3 C 13,9 C 10,6 C 92 % 1014,7 hPa 0,0 l/m 0 min 0 min 127 W/m 16,1 km/h (3 Bft) 97,83 %
08.08.2023 08:32 14,3 C 13,9 C 10,6 C 92 % 1014,7 hPa 0,0 l/m 0 min 0 min 127 W/m 9,7 km/h (2 Bft) 97,87 %
08.08.2023 08:34 14,3 C 13,9 C 10,6 C 92 % 1014,7 hPa 0,0 l/m 0 min 0 min 112 W/m 12,9 km/h (3 Bft) 95,74 %
08.08.2023 08:36 14,3 C 14,4 C 10,6 C 92 % 1014,7 hPa 0,0 l/m 0 min 0 min 161 W/m 16,1 km/h (3 Bft) 97,87 %
08.08.2023 08:38 14,3 C 14,4 C 10,6 C 92 % 1014,8 hPa 0,0 l/m 0 min 0 min 141 W/m 16,1 km/h (3 Bft) 97,87 %
08.08.2023 08:40 14,3 C 14,4 C 10,6 C 92 % 1014,8 hPa 0,0 l/m 0 min 0 min 118 W/m 19,3 km/h (3 Bft) 97,87 %
08.08.2023 08:42 14,3 C 14,4 C 10,6 C 92 % 1014,8 hPa 0,0 l/m 0 min 0 min 111 W/m 9,7 km/h (2 Bft) 97,87 %
08.08.2023 08:44 14,4 C 14,4 C 10,6 C 92 % 1014,8 hPa 0,0 l/m 2 min 0 min 258 W/m 9,7 km/h (2 Bft) 95,65 %
08.08.2023 08:46 14,4 C 14,4 C 10,6 C 92 % 1014,9 hPa 0,0 l/m 0 min 0 min 184 W/m 12,9 km/h (3 Bft) 95,74 %
08.08.2023 08:48 14,4 C 14,4 C 10,6 C 92 % 1014,9 hPa 0,0 l/m 2 min 0 min 222 W/m 16,1 km/h (3 Bft) 100,00 %
08.08.2023 08:50 14,6 C 15,0 C 11,1 C 92 % 1014,7 hPa 0,0 l/m 2 min 0 min 195 W/m 12,9 km/h (3 Bft) 97,87 %
08.08.2023 08:52 14,6 C 15,0 C 11,1 C 92 % 1014,8 hPa 0,0 l/m 0 min 0 min 141 W/m 12,9 km/h (3 Bft) 97,87 %
08.08.2023 08:54 14,6 C 15,0 C 11,1 C 92 % 1014,7 hPa 0,0 l/m 0 min 0 min 152 W/m 19,3 km/h (3 Bft) 97,87 %
08.08.2023 08:56 14,6 C 14,4 C 11,1 C 91 % 1014,7 hPa 0,0 l/m 0 min 0 min 133 W/m 16,1 km/h (3 Bft) 97,87 %
08.08.2023 08:58 14,7 C 15,0 C 11,1 C 91 % 1014,8 hPa 0,0 l/m 0 min 0 min 191 W/m 19,3 km/h (3 Bft) 97,87 %
08.08.2023 09:00 14,7 C 15,0 C 11,1 C 91 % 1014,7 hPa 0,0 l/m 0 min 0 min 168 W/m 16,1 km/h (3 Bft) 97,83 %
08.08.2023 09:02 14,7 C 15,6 C 11,1 C 91 % 1014,7 hPa 0,0 l/m 2 min 0 min 284 W/m 22,5 km/h (4 Bft) 95,74 %
08.08.2023 09:04 14,8 C 15,6 C 11,1 C 91 % 1014,7 hPa 0,0 l/m 2 min 0 min 283 W/m 12,9 km/h (3 Bft) 95,92 %
08.08.2023 09:06 14,8 C 15,6 C 11,1 C 91 % 1014,6 hPa 0,0 l/m 0 min 0 min 180 W/m 12,9 km/h (3 Bft) 98,31 %
08.08.2023 09:08 14,9 C 16,1 C 11,7 C 91 % 1014,8 hPa 0,0 l/m 2 min 0 min 282 W/m 19,3 km/h (3 Bft) 97,14 %
08.08.2023 09:10 14,9 C 15,6 C 11,7 C 91 % 1014,8 hPa 0,0 l/m 0 min 0 min 210 W/m 19,3 km/h (3 Bft) 93,62 %
08.08.2023 09:12 14,9 C 15,6 C 11,1 C 90 % 1014,8 hPa 0,0 l/m 0 min 0 min 169 W/m 16,1 km/h (3 Bft) 95,65 %
08.08.2023 09:14 15,0 C 15,0 C 11,1 C 90 % 1014,7 hPa 0,0 l/m 0 min 0 min 148 W/m 16,1 km/h (3 Bft) 95,74 %
08.08.2023 09:16 15,1 C 15,0 C 11,1 C 90 % 1014,7 hPa 0,0 l/m 0 min 0 min 154 W/m 16,1 km/h (3 Bft) 93,62 %
08.08.2023 09:18 15,1 C 15,0 C 11,1 C 90 % 1014,7 hPa 0,0 l/m 0 min 0 min 146 W/m 6,4 km/h (2 Bft) 93,62 %
08.08.2023 09:20 15,1 C 15,0 C 11,1 C 90 % 1014,7 hPa 0,0 l/m 0 min 0 min 139 W/m 16,1 km/h (3 Bft) 95,74 %
08.08.2023 09:22 15,2 C 15,0 C 11,1 C 90 % 1014,7 hPa 0,0 l/m 0 min 0 min 149 W/m 16,1 km/h (3 Bft) 93,62 %
08.08.2023 09:24 15,2 C 15,6 C 11,1 C 90 % 1014,6 hPa 0,0 l/m 0 min 0 min 181 W/m 16,1 km/h (3 Bft) 95,74 %
08.08.2023 09:26 15,2 C 15,6 C 11,7 C 90 % 1014,7 hPa 0,0 l/m 0 min 0 min 224 W/m 12,9 km/h (3 Bft) 95,65 %
08.08.2023 09:28 15,3 C 15,6 C 11,7 C 90 % 1014,6 hPa 0,0 l/m 0 min 0 min 194 W/m 12,9 km/h (3 Bft) 95,74 %
08.08.2023 09:30 15,3 C 16,1 C 11,7 C 90 % 1014,6 hPa 0,0 l/m 0 min 0 min 175 W/m 6,4 km/h (2 Bft) 93,62 %
08.08.2023 09:32 15,4 C 16,1 C 11,7 C 90 % 1014,6 hPa 0,0 l/m 0 min 0 min 177 W/m 12,9 km/h (3 Bft) 95,74 %
08.08.2023 09:34 15,4 C 16,7 C 11,7 C 90 % 1014,6 hPa 0,0 l/m 0 min 0 min 227 W/m 16,1 km/h (3 Bft) 93,62 %
08.08.2023 09:36 15,5 C 16,1 C 11,7 C 90 % 1014,6 hPa 0,0 l/m 0 min 0 min 226 W/m 22,5 km/h (4 Bft) 93,62 %
08.08.2023 09:38 15,5 C 16,1 C 11,7 C 89 % 1014,6 hPa 0,0 l/m 0 min 0 min 219 W/m 19,3 km/h (3 Bft) 95,74 %
08.08.2023 09:40 15,6 C 15,6 C 11,7 C 89 % 1014,6 hPa 0,0 l/m 0 min 0 min 235 W/m 19,3 km/h (3 Bft) 95,74 %
08.08.2023 09:42 15,6 C 15,6 C 11,7 C 89 % 1014,5 hPa 0,0 l/m 0 min 0 min 210 W/m 19,3 km/h (3 Bft) 97,83 %
08.08.2023 09:44 15,6 C 15,6 C 11,7 C 89 % 1014,6 hPa 0,0 l/m 0 min 0 min 189 W/m 12,9 km/h (3 Bft) 97,87 %
08.08.2023 09:46 15,6 C 15,6 C 11,7 C 88 % 1014,6 hPa 0,0 l/m 0 min 0 min 189 W/m 6,4 km/h (2 Bft) 97,87 %
08.08.2023 09:48 15,6 C 15,6 C 11,7 C 88 % 1014,6 hPa 0,0 l/m 0 min 0 min 209 W/m 12,9 km/h (3 Bft) 97,87 %
08.08.2023 09:50 15,7 C 15,6 C 11,7 C 88 % 1014,6 hPa 0,0 l/m 0 min 0 min 207 W/m 19,3 km/h (3 Bft) 97,87 %
08.08.2023 09:52 15,7 C 16,1 C 12,2 C 88 % 1014,6 hPa 0,0 l/m 0 min 0 min 217 W/m 16,1 km/h (3 Bft) 97,87 %
08.08.2023 09:54 15,8 C 16,1 C 12,2 C 89 % 1014,5 hPa 0,0 l/m 0 min 0 min 219 W/m 19,3 km/h (3 Bft) 97,87 %
08.08.2023 09:56 15,8 C 16,1 C 12,2 C 89 % 1014,6 hPa 0,0 l/m 0 min 0 min 210 W/m 12,9 km/h (3 Bft) 97,83 %
08.08.2023 09:58 15,9 C 16,1 C 12,2 C 88 % 1014,6 hPa 0,0 l/m 0 min 0 min 159 W/m 12,9 km/h (3 Bft) 97,87 %
08.08.2023 10:00 15,9 C 16,1 C 12,2 C 88 % 1014,6 hPa 0,0 l/m 0 min 0 min 179 W/m 19,3 km/h (3 Bft) 97,87 %
08.08.2023 10:02 15,9 C 16,7 C 12,2 C 88 % 1014,5 hPa 0,0 l/m 0 min 0 min 215 W/m 12,9 km/h (3 Bft) 93,62 %
08.08.2023 10:04 16,0 C 17,2 C 12,2 C 88 % 1014,6 hPa 0,0 l/m 2 min 0 min 567 W/m 12,9 km/h (3 Bft) 97,96 %
08.08.2023 10:06 16,2 C 17,2 C 12,8 C 88 % 1014,6 hPa 0,0 l/m 2 min 0 min 341 W/m 22,5 km/h (4 Bft) 100,00 %
08.08.2023 10:08 16,3 C 17,2 C 12,8 C 88 % 1014,6 hPa 0,0 l/m 2 min 0 min 363 W/m 12,9 km/h (3 Bft) 100,00 %
08.08.2023 10:10 16,4 C 17,2 C 12,8 C 88 % 1014,6 hPa 0,0 l/m 2 min 0 min 385 W/m 19,3 km/h (3 Bft) 100,00 %
08.08.2023 10:12 16,4 C 17,8 C 12,8 C 87 % 1014,6 hPa 0,0 l/m 2 min 0 min 378 W/m 6,4 km/h (2 Bft) 95,74 %
08.08.2023 10:14 16,6 C 17,2 C 12,8 C 88 % 1014,7 hPa 0,0 l/m 0 min 0 min 264 W/m 16,1 km/h (3 Bft) 100,00 %
08.08.2023 10:16 16,6 C 16,7 C 12,8 C 87 % 1014,7 hPa 0,0 l/m 0 min 0 min 100 W/m 12,9 km/h (3 Bft) 100,00 %
08.08.2023 10:18 16,5 C 16,1 C 12,8 C 86 % 1014,6 hPa 0,0 l/m 0 min 0 min 113 W/m 19,3 km/h (3 Bft) 97,87 %
08.08.2023 10:20 16,4 C 16,7 C 12,2 C 86 % 1014,6 hPa 0,0 l/m 0 min 0 min 116 W/m 25,7 km/h (4 Bft) 97,87 %
08.08.2023 10:22 16,5 C 17,2 C 12,8 C 86 % 1014,6 hPa 0,0 l/m 0 min 0 min 238 W/m 12,9 km/h (3 Bft) 97,87 %
08.08.2023 10:24 16,5 C 17,2 C 12,8 C 86 % 1014,6 hPa 0,0 l/m 2 min 0 min 540 W/m 16,1 km/h (3 Bft) 97,83 %
08.08.2023 10:26 16,6 C 17,2 C 12,8 C 86 % 1014,6 hPa 0,0 l/m 2 min 0 min 316 W/m 19,3 km/h (3 Bft) 97,87 %
08.08.2023 10:28 16,6 C 17,2 C 12,8 C 86 % 1014,5 hPa 0,0 l/m 2 min 0 min 341 W/m 19,3 km/h (3 Bft) 97,87 %
08.08.2023 10:30 16,6 C 17,2 C 12,8 C 86 % 1014,6 hPa 0,0 l/m 2 min 0 min 311 W/m 12,9 km/h (3 Bft) 95,74 %
08.08.2023 10:32 16,7 C 17,2 C 12,8 C 86 % 1014,6 hPa 0,0 l/m 0 min 0 min 292 W/m 12,9 km/h (3 Bft) 95,74 %
08.08.2023 10:34 16,7 C 17,2 C 13,3 C 86 % 1014,6 hPa 0,0 l/m 0 min 0 min 291 W/m 19,3 km/h (3 Bft) 97,87 %
08.08.2023 10:36 16,7 C 17,2 C 13,3 C 85 % 1014,6 hPa 0,0 l/m 0 min 0 min 298 W/m 12,9 km/h (3 Bft) 97,87 %
08.08.2023 10:38 16,8 C 17,2 C 13,3 C 85 % 1014,6 hPa 0,0 l/m 0 min 0 min 302 W/m 6,4 km/h (2 Bft) 95,65 %
08.08.2023 10:40 16,9 C 17,2 C 13,3 C 86 % 1014,6 hPa 0,0 l/m 0 min 0 min 290 W/m 12,9 km/h (3 Bft) 97,87 %
08.08.2023 10:42 16,9 C 17,2 C 13,3 C 86 % 1014,6 hPa 0,0 l/m 0 min 0 min 283 W/m 16,1 km/h (3 Bft) 97,87 %
08.08.2023 10:44 17,0 C 17,2 C 13,3 C 85 % 1014,6 hPa 0,0 l/m 0 min 0 min 273 W/m 12,9 km/h (3 Bft) 97,87 %
08.08.2023 10:46 17,0 C 17,2 C 13,3 C 85 % 1014,6 hPa 0,0 l/m 0 min 0 min 276 W/m 16,1 km/h (3 Bft) 97,87 %
08.08.2023 10:48 17,0 C 17,2 C 13,3 C 85 % 1014,6 hPa 0,0 l/m 0 min 0 min 278 W/m 12,9 km/h (3 Bft) 97,87 %
08.08.2023 10:50 17,0 C 17,2 C 13,3 C 85 % 1014,5 hPa 0,0 l/m 0 min 0 min 264 W/m 9,7 km/h (2 Bft) 97,87 %
08.08.2023 10:52 17,1 C 17,2 C 13,3 C 85 % 1014,6 hPa 0,0 l/m 0 min 0 min 272 W/m 12,9 km/h (3 Bft) 94,74 %
08.08.2023 10:54 17,1 C 17,2 C 13,3 C 85 % 1014,6 hPa 0,0 l/m 0 min 0 min 295 W/m 16,1 km/h (3 Bft) 97,83 %
08.08.2023 10:56 17,1 C 17,2 C 13,3 C 85 % 1014,6 hPa 0,0 l/m 2 min 0 min 331 W/m 12,9 km/h (3 Bft) 100,00 %
08.08.2023 10:58 17,0 C 17,2 C 13,3 C 85 % 1014,6 hPa 0,0 l/m 0 min 0 min 305 W/m 16,1 km/h (3 Bft) 100,00 %
08.08.2023 11:00 17,0 C 17,2 C 13,3 C 85 % 1014,6 hPa 0,0 l/m 2 min 0 min 332 W/m 22,5 km/h (4 Bft) 97,87 %
08.08.2023 11:02 16,9 C 17,2 C 13,3 C 84 % 1014,6 hPa 0,0 l/m 2 min 0 min 350 W/m 16,1 km/h (3 Bft) 100,00 %
08.08.2023 11:04 16,9 C 17,2 C 13,3 C 85 % 1014,6 hPa 0,0 l/m 2 min 0 min 354 W/m 16,1 km/h (3 Bft) 100,00 %
08.08.2023 11:06 16,9 C 17,2 C 13,3 C 84 % 1014,6 hPa 0,0 l/m 2 min 0 min 354 W/m 19,3 km/h (3 Bft) 100,00 %
08.08.2023 11:08 16,9 C 17,2 C 13,3 C 84 % 1014,6 hPa 0,0 l/m 2 min 0 min 392 W/m 16,1 km/h (3 Bft) 100,00 %
08.08.2023 11:10 16,9 C 17,2 C 13,3 C 84 % 1014,6 hPa 0,0 l/m 0 min 0 min 331 W/m 16,1 km/h (3 Bft) 100,00 %
08.08.2023 11:12 16,9 C 17,2 C 13,3 C 84 % 1014,6 hPa 0,0 l/m 2 min 0 min 358 W/m 12,9 km/h (3 Bft) 100,00 %
08.08.2023 11:14 16,9 C 17,2 C 13,3 C 84 % 1014,6 hPa 0,0 l/m 2 min 0 min 413 W/m 22,5 km/h (4 Bft) 100,00 %
08.08.2023 11:16 17,1 C 17,8 C 13,9 C 85 % 1014,6 hPa 0,0 l/m 2 min 0 min 423 W/m 9,7 km/h (2 Bft) 100,00 %
08.08.2023 11:18 17,1 C 17,8 C 13,9 C 85 % 1014,5 hPa 0,0 l/m 2 min 0 min 420 W/m 16,1 km/h (3 Bft) 100,00 %
08.08.2023 11:20 17,2 C 17,8 C 13,9 C 84 % 1014,5 hPa 0,0 l/m 2 min 0 min 478 W/m 22,5 km/h (4 Bft) 100,00 %
08.08.2023 11:22 17,3 C 17,8 C 13,9 C 84 % 1014,6 hPa 0,0 l/m 2 min 0 min 445 W/m 19,3 km/h (3 Bft) 97,87 %
08.08.2023 11:24 17,3 C 18,3 C 13,9 C 83 % 1014,5 hPa 0,0 l/m 2 min 0 min 407 W/m 16,1 km/h (3 Bft) 95,74 %
08.08.2023 11:26 17,4 C 18,3 C 13,9 C 84 % 1014,5 hPa 0,0 l/m 2 min 0 min 451 W/m 16,1 km/h (3 Bft) 97,87 %
08.08.2023 11:28 17,4 C 18,3 C 13,9 C 84 % 1014,5 hPa 0,0 l/m 2 min 0 min 428 W/m 16,1 km/h (3 Bft) 97,87 %
08.08.2023 11:30 17,4 C 18,3 C 13,9 C 83 % 1014,5 hPa 0,0 l/m 2 min 0 min 471 W/m 19,3 km/h (3 Bft) 97,87 %
08.08.2023 11:32 17,4 C 18,3 C 13,9 C 83 % 1014,6 hPa 0,0 l/m 2 min 0 min 447 W/m 22,5 km/h (4 Bft) 97,87 %
08.08.2023 11:34 17,5 C 18,3 C 14,4 C 83 % 1014,5 hPa 0,0 l/m 2 min 0 min 414 W/m 12,9 km/h (3 Bft) 95,65 %
08.08.2023 11:36 17,5 C 18,3 C 14,4 C 82 % 1014,5 hPa 0,0 l/m 2 min 0 min 385 W/m 22,5 km/h (4 Bft) 97,87 %
08.08.2023 11:38 17,6 C 18,3 C 14,4 C 82 % 1014,6 hPa 0,0 l/m 2 min 0 min 417 W/m 22,5 km/h (4 Bft) 95,74 %
08.08.2023 11:40 17,6 C 18,3 C 14,4 C 82 % 1014,5 hPa 0,0 l/m 2 min 0 min 402 W/m 19,3 km/h (3 Bft) 97,87 %
08.08.2023 11:42 17,7 C 18,3 C 14,4 C 82 % 1014,5 hPa 0,0 l/m 0 min 0 min 323 W/m 12,9 km/h (3 Bft) 97,87 %
08.08.2023 11:44 17,7 C 17,8 C 13,9 C 82 % 1014,5 hPa 0,0 l/m 0 min 0 min 324 W/m 29,0 km/h (5 Bft) 97,87 %
08.08.2023 11:46 17,7 C 17,8 C 13,9 C 82 % 1014,6 hPa 0,0 l/m 0 min 0 min 328 W/m 19,3 km/h (3 Bft) 97,87 %
08.08.2023 11:48 17,6 C 17,8 C 13,9 C 81 % 1014,5 hPa 0,0 l/m 0 min 0 min 301 W/m 12,9 km/h (3 Bft) 97,83 %
08.08.2023 11:50 17,7 C 17,8 C 13,9 C 81 % 1014,6 hPa 0,0 l/m 0 min 0 min 314 W/m 12,9 km/h (3 Bft) 97,87 %
08.08.2023 11:52 17,7 C 17,8 C 13,9 C 82 % 1014,6 hPa 0,0 l/m 0 min 0 min 267 W/m 16,1 km/h (3 Bft) 97,87 %
08.08.2023 11:54 17,7 C 17,8 C 13,9 C 81 % 1014,6 hPa 0,0 l/m 0 min 0 min 260 W/m 16,1 km/h (3 Bft) 95,74 %
08.08.2023 11:56 17,7 C 17,8 C 13,9 C 81 % 1014,6 hPa 0,0 l/m 0 min 0 min 182 W/m 16,1 km/h (3 Bft) 97,87 %
08.08.2023 11:58 17,7 C 17,2 C 13,9 C 80 % 1014,6 hPa 0,0 l/m 0 min 0 min 158 W/m 16,1 km/h (3 Bft) 97,87 %
08.08.2023 12:00 17,7 C 17,2 C 13,9 C 80 % 1014,6 hPa 0,0 l/m 0 min 0 min 188 W/m 9,7 km/h (2 Bft) 97,14 %
08.08.2023 12:02 17,6 C 17,2 C 13,3 C 80 % 1014,6 hPa 0,0 l/m 0 min 0 min 177 W/m 19,3 km/h (3 Bft) 96,55 %
08.08.2023 12:04 17,6 C 17,2 C 13,3 C 81 % 1014,6 hPa 0,0 l/m 0 min 0 min 222 W/m 12,9 km/h (3 Bft) 96,67 %
08.08.2023 12:07 17,6 C 17,2 C 13,9 C 81 % 1014,6 hPa 0,0 l/m 0 min 0 min 229 W/m 16,1 km/h (3 Bft) 96,67 %
08.08.2023 12:08 17,6 C 17,2 C 13,9 C 81 % 1014,6 hPa 0,0 l/m 0 min 0 min 236 W/m 16,1 km/h (3 Bft) 100,00 %
08.08.2023 12:12 17,5 C 17,2 C 13,3 C 80 % 1014,6 hPa 0,0 l/m 0 min 0 min 193 W/m 12,9 km/h (3 Bft) 100,00 %
08.08.2023 12:14 17,5 C 17,2 C 13,3 C 80 % 1014,5 hPa 0,0 l/m 0 min 0 min 172 W/m 16,1 km/h (3 Bft) 100,00 %
08.08.2023 12:16 17,4 C 16,7 C 13,3 C 79 % 1014,6 hPa 0,0 l/m 0 min 0 min 160 W/m 29,0 km/h (5 Bft) 97,87 %
08.08.2023 12:18 17,4 C 16,7 C 13,3 C 79 % 1014,6 hPa 0,0 l/m 0 min 0 min 157 W/m 12,9 km/h (3 Bft) 97,87 %
08.08.2023 12:20 17,4 C 16,7 C 13,3 C 80 % 1014,6 hPa 0,0 l/m 0 min 0 min 157 W/m 19,3 km/h (3 Bft) 100,00 %
08.08.2023 12:22 17,4 C 16,7 C 13,3 C 79 % 1014,6 hPa 0,0 l/m 0 min 0 min 135 W/m 16,1 km/h (3 Bft) 100,00 %
08.08.2023 12:24 17,4 C 16,7 C 13,3 C 80 % 1014,6 hPa 0,0 l/m 0 min 0 min 95 W/m 6,4 km/h (2 Bft) 95,74 %
08.08.2023 12:26 17,4 C 16,7 C 13,3 C 80 % 1014,6 hPa 0,0 l/m 0 min 2 min 93 W/m 9,7 km/h (2 Bft) 95,74 %
08.08.2023 12:28 17,4 C 16,7 C 13,3 C 81 % 1014,6 hPa 0,0 l/m 0 min 0 min 103 W/m 12,9 km/h (3 Bft) 97,87 %
08.08.2023 12:30 17,4 C 16,7 C 12,8 C 82 % 1014,6 hPa 0,0 l/m 0 min 0 min 101 W/m 19,3 km/h (3 Bft) 97,87 %
08.08.2023 12:32 17,3 C 16,7 C 12,8 C 82 % 1014,7 hPa 0,0 l/m 0 min 0 min 102 W/m 9,7 km/h (2 Bft) 97,83 %
08.08.2023 12:34 17,2 C 16,7 C 12,8 C 82 % 1014,7 hPa 0,0 l/m 0 min 2 min 95 W/m 9,7 km/h (2 Bft) 95,74 %
08.08.2023 12:36 17,2 C 16,7 C 12,8 C 83 % 1014,7 hPa 0,0 l/m 0 min 2 min 194 W/m 19,3 km/h (3 Bft) 97,87 %
08.08.2023 12:38 17,1 C 16,7 C 12,8 C 83 % 1014,6 hPa 0,0 l/m 0 min 0 min 273 W/m 19,3 km/h (3 Bft) 97,14 %
08.08.2023 12:40 17,1 C 16,7 C 12,8 C 84 % 1014,6 hPa 0,0 l/m 0 min 0 min 257 W/m 9,7 km/h (2 Bft) 96,61 %
08.08.2023 12:42 17,1 C 16,7 C 13,3 C 84 % 1014,7 hPa 0,0 l/m 0 min 0 min 220 W/m 16,1 km/h (3 Bft) 95,65 %
08.08.2023 12:44 17,1 C 16,7 C 13,3 C 84 % 1014,8 hPa 0,0 l/m 0 min 0 min 195 W/m 22,5 km/h (4 Bft) 95,83 %
08.08.2023 12:46 17,1 C 16,7 C 13,3 C 84 % 1014,7 hPa 0,0 l/m 0 min 0 min 196 W/m 22,5 km/h (4 Bft) 95,65 %
08.08.2023 12:48 17,1 C 16,7 C 12,8 C 83 % 1014,7 hPa 0,0 l/m 0 min 0 min 194 W/m 12,9 km/h (3 Bft) 95,74 %
08.08.2023 12:50 17,1 C 16,7 C 13,3 C 84 % 1014,7 hPa 0,0 l/m 0 min 0 min 200 W/m 6,4 km/h (2 Bft) 95,74 %
08.08.2023 12:52 17,1 C 16,7 C 13,3 C 84 % 1014,8 hPa 0,0 l/m 0 min 0 min 167 W/m 12,9 km/h (3 Bft) 95,74 %
08.08.2023 12:54 17,1 C 16,7 C 13,3 C 84 % 1014,8 hPa 0,0 l/m 0 min 0 min 147 W/m 19,3 km/h (3 Bft) 95,74 %
08.08.2023 12:56 17,1 C 16,7 C 12,8 C 84 % 1014,7 hPa 0,0 l/m 0 min 0 min 146 W/m 16,1 km/h (3 Bft) 93,62 %
08.08.2023 12:58 17,0 C 16,7 C 12,8 C 84 % 1014,7 hPa 0,0 l/m 0 min 0 min 226 W/m 9,7 km/h (2 Bft) 95,74 %
08.08.2023 13:00 17,1 C 17,2 C 13,3 C 85 % 1014,7 hPa 0,0 l/m 0 min 0 min 330 W/m 16,1 km/h (3 Bft) 95,65 %
08.08.2023 13:02 17,1 C 17,8 C 13,3 C 85 % 1014,7 hPa 0,0 l/m 0 min 0 min 346 W/m 16,1 km/h (3 Bft) 97,87 %
08.08.2023 13:04 17,2 C 18,3 C 13,9 C 85 % 1014,7 hPa 0,0 l/m 2 min 0 min 468 W/m 16,1 km/h (3 Bft) 97,96 %
08.08.2023 13:06 17,3 C 18,9 C 14,4 C 85 % 1014,7 hPa 0,0 l/m 2 min 0 min 479 W/m 16,1 km/h (3 Bft) 97,87 %
08.08.2023 13:08 17,4 C 18,9 C 14,4 C 84 % 1014,7 hPa 0,0 l/m 2 min 0 min 505 W/m 19,3 km/h (3 Bft) 97,87 %
08.08.2023 13:10 17,6 C 18,9 C 14,4 C 84 % 1014,7 hPa 0,0 l/m 2 min 0 min 555 W/m 19,3 km/h (3 Bft) 95,74 %
08.08.2023 13:12 17,7 C 19,4 C 14,4 C 84 % 1014,7 hPa 0,0 l/m 2 min 0 min 675 W/m 16,1 km/h (3 Bft) 97,87 %
08.08.2023 13:14 17,9 C 18,9 C 15,0 C 83 % 1014,7 hPa 0,0 l/m 2 min 0 min 875 W/m 12,9 km/h (3 Bft) 97,83 %
08.08.2023 13:16 18,1 C 18,9 C 15,0 C 83 % 1014,6 hPa 0,0 l/m 0 min 0 min 308 W/m 22,5 km/h (4 Bft) 97,22 %
08.08.2023 13:18 18,1 C 18,9 C 15,0 C 82 % 1014,6 hPa 0,0 l/m 0 min 0 min 317 W/m 12,9 km/h (3 Bft) 98,28 %
08.08.2023 13:20 18,2 C 18,9 C 15,0 C 82 % 1014,6 hPa 0,0 l/m 0 min 0 min 355 W/m 19,3 km/h (3 Bft) 97,14 %
08.08.2023 13:22 18,2 C 18,9 C 15,0 C 81 % 1014,6 hPa 0,0 l/m 0 min 0 min 372 W/m 16,1 km/h (3 Bft) 97,87 %
08.08.2023 13:24 18,2 C 18,9 C 14,4 C 79 % 1014,6 hPa 0,0 l/m 0 min 0 min 392 W/m 19,3 km/h (3 Bft) 96,61 %
08.08.2023 13:26 18,2 C 18,3 C 14,4 C 79 % 1014,5 hPa 0,0 l/m 0 min 0 min 392 W/m 22,5 km/h (4 Bft) 95,74 %
08.08.2023 13:28 18,1 C 17,8 C 14,4 C 78 % 1014,5 hPa 0,0 l/m 0 min 0 min 256 W/m 19,3 km/h (3 Bft) 97,87 %
08.08.2023 13:30 18,1 C 17,8 C 13,9 C 79 % 1014,5 hPa 0,0 l/m 0 min 0 min 168 W/m 6,4 km/h (2 Bft) 95,65 %
08.08.2023 13:32 18,1 C 17,8 C 14,4 C 80 % 1014,5 hPa 0,0 l/m 0 min 0 min 217 W/m 12,9 km/h (3 Bft) 100,00 %
08.08.2023 13:34 18,1 C 17,8 C 13,9 C 80 % 1014,4 hPa 0,0 l/m 0 min 0 min 180 W/m 16,1 km/h (3 Bft) 96,43 %
08.08.2023 13:36 18,1 C 17,2 C 13,9 C 80 % 1014,5 hPa 0,0 l/m 0 min 0 min 109 W/m 12,9 km/h (3 Bft) 98,00 %
08.08.2023 13:38 17,9 C 17,2 C 13,9 C 80 % 1014,4 hPa 0,0 l/m 0 min 0 min 77 W/m 16,1 km/h (3 Bft) 100,00 %
08.08.2023 13:40 17,9 C 17,2 C 13,9 C 79 % 1014,4 hPa 0,0 l/m 0 min 0 min 55 W/m 12,9 km/h (3 Bft) 97,87 %
08.08.2023 13:42 17,8 C 16,7 C 13,3 C 79 % 1014,4 hPa 0,0 l/m 0 min 2 min 38 W/m 16,1 km/h (3 Bft) 97,83 %
08.08.2023 13:44 17,7 C 16,7 C 12,8 C 80 % 1014,5 hPa 0,0 l/m 0 min 0 min 40 W/m 16,1 km/h (3 Bft) 100,00 %
08.08.2023 13:46 17,6 C 16,7 C 12,8 C 81 % 1014,5 hPa 0,0 l/m 0 min 0 min 67 W/m 6,4 km/h (2 Bft) 100,00 %
08.08.2023 13:48 17,6 C 16,7 C 12,8 C 81 % 1014,5 hPa 0,0 l/m 0 min 0 min 80 W/m 16,1 km/h (3 Bft) 100,00 %
08.08.2023 13:50 17,4 C 16,7 C 12,2 C 81 % 1014,5 hPa 0,0 l/m 0 min 0 min 83 W/m 19,3 km/h (3 Bft) 100,00 %
08.08.2023 13:52 17,3 C 16,7 C 12,2 C 82 % 1014,5 hPa 0,0 l/m 0 min 0 min 87 W/m 16,1 km/h (3 Bft) 100,00 %
08.08.2023 13:54 17,2 C 16,1 C 12,2 C 83 % 1014,5 hPa 0,0 l/m 0 min 0 min 89 W/m 16,1 km/h (3 Bft) 98,31 %
08.08.2023 13:56 17,2 C 16,1 C 12,8 C 83 % 1014,5 hPa 0,0 l/m 0 min 0 min 97 W/m 9,7 km/h (2 Bft) 97,14 %
08.08.2023 13:58 17,1 C 16,7 C 12,8 C 83 % 1014,5 hPa 0,0 l/m 0 min 0 min 108 W/m 6,4 km/h (2 Bft) 97,87 %
08.08.2023 14:00 17,1 C 16,7 C 12,8 C 84 % 1014,5 hPa 0,0 l/m 0 min 0 min 124 W/m 35,4 km/h (5 Bft) 97,83 %
08.08.2023 14:02 17,0 C 16,7 C 12,8 C 84 % 1014,5 hPa 0,0 l/m 0 min 0 min 156 W/m 16,1 km/h (3 Bft) 95,74 %
08.08.2023 14:04 17,0 C 16,7 C 12,8 C 83 % 1014,5 hPa 0,0 l/m 0 min 0 min 192 W/m 19,3 km/h (3 Bft) 97,96 %
08.08.2023 14:06 17,0 C 16,7 C 12,8 C 83 % 1014,6 hPa 0,0 l/m 0 min 0 min 235 W/m 19,3 km/h (3 Bft) 94,92 %
08.08.2023 14:08 17,0 C 16,7 C 12,8 C 83 % 1014,5 hPa 0,0 l/m 0 min 0 min 265 W/m 16,1 km/h (3 Bft) 97,87 %
08.08.2023 14:10 17,1 C 17,2 C 13,3 C 83 % 1014,5 hPa 0,0 l/m 0 min 0 min 277 W/m 16,1 km/h (3 Bft) 97,14 %
08.08.2023 14:12 17,1 C 17,2 C 13,3 C 83 % 1014,6 hPa 0,0 l/m 0 min 0 min 263 W/m 19,3 km/h (3 Bft) 95,74 %
08.08.2023 14:14 17,2 C 17,8 C 13,3 C 84 % 1014,5 hPa 0,0 l/m 0 min 0 min 311 W/m 19,3 km/h (3 Bft) 97,83 %
08.08.2023 14:16 17,2 C 17,8 C 13,9 C 83 % 1014,5 hPa 0,0 l/m 0 min 0 min 356 W/m 16,1 km/h (3 Bft) 97,87 %
08.08.2023 14:18 17,3 C 18,9 C 13,9 C 83 % 1014,5 hPa 0,0 l/m 2 min 0 min 461 W/m 19,3 km/h (3 Bft) 91,49 %
08.08.2023 14:20 17,4 C 20,6 C 13,9 C 83 % 1014,5 hPa 0,0 l/m 2 min 0 min 567 W/m 29,0 km/h (5 Bft) 97,87 %
08.08.2023 14:22 17,6 C 21,1 C 14,4 C 82 % 1014,5 hPa 0,0 l/m 2 min 0 min 972 W/m 12,9 km/h (3 Bft) 97,87 %
08.08.2023 14:24 17,8 C 22,2 C 14,4 C 81 % 1014,4 hPa 0,0 l/m 2 min 0 min 740 W/m 16,1 km/h (3 Bft) 95,74 %
08.08.2023 14:26 18,1 C 23,9 C 15,0 C 81 % 1014,4 hPa 0,0 l/m 2 min 0 min 886 W/m 12,9 km/h (3 Bft) 97,87 %
08.08.2023 14:28 18,3 C 23,9 C 15,0 C 80 % 1014,3 hPa 0,0 l/m 2 min 0 min 1061 W/m 25,7 km/h (4 Bft) 93,48 %
08.08.2023 14:30 18,6 C 23,9 C 15,0 C 79 % 1014,3 hPa 0,0 l/m 2 min 0 min 903 W/m 22,5 km/h (4 Bft) 95,74 %
08.08.2023 14:32 18,9 C 23,9 C 15,6 C 78 % 1014,3 hPa 0,0 l/m 2 min 0 min 933 W/m 19,3 km/h (3 Bft) 95,74 %
08.08.2023 14:34 19,1 C 22,2 C 15,6 C 77 % 1014,5 hPa 0,0 l/m 2 min 0 min 1037 W/m 22,5 km/h (4 Bft) 95,74 %
08.08.2023 14:36 19,1 C 21,7 C 15,0 C 76 % 1014,3 hPa 0,0 l/m 2 min 0 min 1037 W/m 16,1 km/h (3 Bft) 91,49 %
08.08.2023 14:38 19,2 C 20,0 C 15,0 C 76 % 1014,2 hPa 0,0 l/m 2 min 0 min 590 W/m 16,1 km/h (3 Bft) 97,87 %
08.08.2023 14:40 19,1 C 19,4 C 15,0 C 75 % 1014,3 hPa 0,0 l/m 0 min 0 min 215 W/m 22,5 km/h (4 Bft) 97,87 %
08.08.2023 14:42 19,0 C 18,9 C 15,0 C 75 % 1014,4 hPa 0,0 l/m 0 min 0 min 191 W/m 25,7 km/h (4 Bft) 93,62 %
08.08.2023 14:44 18,8 C 18,3 C 14,4 C 75 % 1014,3 hPa 0,0 l/m 0 min 0 min 251 W/m 19,3 km/h (3 Bft) 97,87 %
08.08.2023 14:46 18,7 C 18,3 C 14,4 C 76 % 1014,2 hPa 0,0 l/m 0 min 0 min 244 W/m 19,3 km/h (3 Bft) 95,65 %
08.08.2023 14:48 18,6 C 18,3 C 14,4 C 76 % 1014,4 hPa 0,0 l/m 0 min 0 min 224 W/m 22,5 km/h (4 Bft) 95,74 %
08.08.2023 14:50 18,6 C 18,3 C 14,4 C 75 % 1014,1 hPa 0,0 l/m 0 min 0 min 209 W/m 19,3 km/h (3 Bft) 97,87 %
08.08.2023 14:52 18,4 C 18,3 C 14,4 C 76 % 1014,3 hPa 0,0 l/m 0 min 0 min 189 W/m 12,9 km/h (3 Bft) 97,87 %
08.08.2023 14:54 18,4 C 17,8 C 14,4 C 77 % 1014,3 hPa 0,0 l/m 0 min 0 min 216 W/m 16,1 km/h (3 Bft) 95,74 %
08.08.2023 14:56 18,4 C 18,3 C 14,4 C 77 % 1014,3 hPa 0,0 l/m 0 min 0 min 261 W/m 12,9 km/h (3 Bft) 97,87 %
08.08.2023 14:58 18,4 C 18,3 C 14,4 C 78 % 1014,3 hPa 0,0 l/m 0 min 0 min 266 W/m 19,3 km/h (3 Bft) 97,87 %
08.08.2023 15:00 18,4 C 18,3 C 14,4 C 78 % 1014,3 hPa 0,0 l/m 0 min 0 min 237 W/m 16,1 km/h (3 Bft) 95,65 %
08.08.2023 15:02 18,4 C 18,3 C 14,4 C 78 % 1014,3 hPa 0,0 l/m 0 min 0 min 226 W/m 16,1 km/h (3 Bft) 97,87 %
08.08.2023 15:04 18,3 C 18,3 C 14,4 C 77 % 1014,3 hPa 0,0 l/m 0 min 0 min 261 W/m 16,1 km/h (3 Bft) 97,92 %
08.08.2023 15:06 18,3 C 18,9 C 14,4 C 78 % 1014,2 hPa 0,0 l/m 0 min 0 min 343 W/m 16,1 km/h (3 Bft) 95,00 %
08.08.2023 15:08 18,4 C 21,7 C 14,4 C 79 % 1014,2 hPa 0,0 l/m 2 min 0 min 709 W/m 12,9 km/h (3 Bft) 100,00 %
08.08.2023 15:10 18,6 C 22,8 C 15,0 C 78 % 1014,2 hPa 0,0 l/m 2 min 0 min 830 W/m 16,1 km/h (3 Bft) 100,00 %
08.08.2023 15:12 18,8 C 22,2 C 15,0 C 76 % 1014,2 hPa 0,0 l/m 2 min 0 min 837 W/m 16,1 km/h (3 Bft) 97,87 %
08.08.2023 15:14 18,9 C 21,1 C 15,0 C 75 % 1014,1 hPa 0,0 l/m 2 min 0 min 711 W/m 19,3 km/h (3 Bft) 100,00 %
08.08.2023 15:16 19,0 C 21,1 C 15,0 C 75 % 1014,2 hPa 0,0 l/m 0 min 0 min 234 W/m 12,9 km/h (3 Bft) 100,00 %
08.08.2023 15:18 19,1 C 20,0 C 15,0 C 75 % 1013,9 hPa 0,0 l/m 0 min 0 min 264 W/m 19,3 km/h (3 Bft) 97,87 %
08.08.2023 15:20 19,1 C 18,9 C 15,0 C 74 % 1014,1 hPa 0,0 l/m 0 min 0 min 180 W/m 12,9 km/h (3 Bft) 100,00 %
08.08.2023 15:22 19,0 C 18,9 C 15,0 C 74 % 1014,0 hPa 0,0 l/m 0 min 0 min 174 W/m 16,1 km/h (3 Bft) 100,00 %
08.08.2023 15:24 18,9 C 18,3 C 14,4 C 74 % 1014,1 hPa 0,0 l/m 0 min 0 min 151 W/m 19,3 km/h (3 Bft) 97,87 %
08.08.2023 15:26 18,8 C 18,3 C 14,4 C 74 % 1014,1 hPa 0,0 l/m 0 min 0 min 137 W/m 12,9 km/h (3 Bft) 100,00 %
08.08.2023 15:28 18,8 C 18,3 C 14,4 C 75 % 1014,2 hPa 0,0 l/m 0 min 0 min 137 W/m 12,9 km/h (3 Bft) 100,00 %
08.08.2023 15:30 18,8 C 18,3 C 14,4 C 75 % 1014,2 hPa 0,0 l/m 0 min 0 min 189 W/m 12,9 km/h (3 Bft) 97,87 %
08.08.2023 15:32 18,7 C 18,9 C 14,4 C 75 % 1014,0 hPa 0,0 l/m 0 min 0 min 350 W/m 16,1 km/h (3 Bft) 100,00 %
08.08.2023 15:34 18,7 C 18,9 C 14,4 C 76 % 1014,0 hPa 0,0 l/m 0 min 0 min 237 W/m 12,9 km/h (3 Bft) 100,00 %
08.08.2023 15:36 18,7 C 18,9 C 14,4 C 76 % 1014,0 hPa 0,0 l/m 0 min 0 min 152 W/m 25,7 km/h (4 Bft) 100,00 %
08.08.2023 15:38 18,7 C 18,3 C 14,4 C 76 % 1014,1 hPa 0,0 l/m 0 min 0 min 126 W/m 22,5 km/h (4 Bft) 100,00 %
08.08.2023 15:40 18,7 C 18,3 C 14,4 C 76 % 1014,1 hPa 0,0 l/m 0 min 0 min 123 W/m 16,1 km/h (3 Bft) 100,00 %
08.08.2023 15:42 18,7 C 18,3 C 14,4 C 76 % 1014,2 hPa 0,0 l/m 0 min 0 min 160 W/m 16,1 km/h (3 Bft) 100,00 %
08.08.2023 15:44 18,6 C 18,3 C 14,4 C 77 % 1014,2 hPa 0,0 l/m 0 min 0 min 200 W/m 12,9 km/h (3 Bft) 100,00 %
08.08.2023 15:46 18,7 C 18,3 C 14,4 C 77 % 1014,2 hPa 0,0 l/m 0 min 0 min 193 W/m 12,9 km/h (3 Bft) 100,00 %
08.08.2023 15:48 18,7 C 18,3 C 14,4 C 78 % 1014,2 hPa 0,0 l/m 0 min 0 min 134 W/m 9,7 km/h (2 Bft) 97,87 %
08.08.2023 15:50 18,7 C 18,3 C 14,4 C 78 % 1014,1 hPa 0,0 l/m 0 min 0 min 116 W/m 6,4 km/h (2 Bft) 100,00 %
08.08.2023 15:52 18,7 C 18,3 C 14,4 C 76 % 1014,1 hPa 0,0 l/m 0 min 0 min 117 W/m 19,3 km/h (3 Bft) 100,00 %
08.08.2023 15:54 18,6 C 18,3 C 14,4 C 75 % 1014,1 hPa 0,0 l/m 0 min 0 min 128 W/m 12,9 km/h (3 Bft) 100,00 %
08.08.2023 15:56 18,6 C 18,3 C 14,4 C 75 % 1014,1 hPa 0,0 l/m 0 min 0 min 141 W/m 12,9 km/h (3 Bft) 100,00 %
08.08.2023 15:58 18,6 C 18,3 C 14,4 C 76 % 1014,1 hPa 0,0 l/m 0 min 0 min 132 W/m 9,7 km/h (2 Bft) 95,65 %
08.08.2023 16:00 18,7 C 18,3 C 14,4 C 76 % 1014,1 hPa 0,0 l/m 0 min 0 min 135 W/m 12,9 km/h (3 Bft) 100,00 %
08.08.2023 16:02 18,7 C 18,3 C 14,4 C 77 % 1014,1 hPa 0,0 l/m 0 min 0 min 138 W/m 12,9 km/h (3 Bft) 100,00 %
08.08.2023 16:04 18,7 C 18,3 C 14,4 C 77 % 1014,2 hPa 0,0 l/m 0 min 0 min 131 W/m 16,1 km/h (3 Bft) 100,00 %
08.08.2023 16:06 18,6 C 18,3 C 14,4 C 76 % 1014,0 hPa 0,0 l/m 0 min 0 min 146 W/m 12,9 km/h (3 Bft) 100,00 %
08.08.2023 16:08 18,6 C 18,3 C 14,4 C 76 % 1014,1 hPa 0,0 l/m 0 min 0 min 186 W/m 16,1 km/h (3 Bft) 97,87 %
08.08.2023 16:10 18,6 C 18,3 C 14,4 C 76 % 1014,1 hPa 0,0 l/m 0 min 0 min 172 W/m 9,7 km/h (2 Bft) 97,83 %
08.08.2023 16:12 18,7 C 18,3 C 14,4 C 75 % 1014,0 hPa 0,0 l/m 0 min 0 min 189 W/m 16,1 km/h (3 Bft) 97,87 %
08.08.2023 16:14 18,7 C 18,9 C 14,4 C 73 % 1014,0 hPa 0,0 l/m 0 min 0 min 294 W/m 16,1 km/h (3 Bft) 93,62 %
08.08.2023 16:16 18,8 C 20,0 C 15,0 C 73 % 1014,0 hPa 0,0 l/m 0 min 0 min 316 W/m 12,9 km/h (3 Bft) 97,87 %
08.08.2023 16:18 19,1 C 20,6 C 15,6 C 73 % 1014,0 hPa 0,0 l/m 2 min 0 min 369 W/m 19,3 km/h (3 Bft) 97,87 %
08.08.2023 16:20 19,3 C 20,6 C 15,6 C 71 % 1014,0 hPa 0,0 l/m 2 min 0 min 369 W/m 16,1 km/h (3 Bft) 97,87 %
08.08.2023 16:22 19,4 C 20,0 C 15,6 C 70 % 1014,2 hPa 0,0 l/m 0 min 0 min 176 W/m 19,3 km/h (3 Bft) 100,00 %
08.08.2023 16:24 19,4 C 19,4 C 15,0 C 69 % 1014,0 hPa 0,0 l/m 0 min 0 min 142 W/m 16,1 km/h (3 Bft) 95,65 %
08.08.2023 16:26 19,4 C 18,9 C 15,0 C 69 % 1014,1 hPa 0,0 l/m 0 min 0 min 153 W/m 9,7 km/h (2 Bft) 95,74 %
08.08.2023 16:28 19,3 C 18,9 C 15,0 C 68 % 1014,1 hPa 0,0 l/m 0 min 0 min 180 W/m 19,3 km/h (3 Bft) 95,74 %
08.08.2023 16:30 19,3 C 18,9 C 15,0 C 69 % 1014,1 hPa 0,0 l/m 0 min 0 min 195 W/m 16,1 km/h (3 Bft) 91,49 %
08.08.2023 16:32 19,3 C 18,9 C 15,0 C 68 % 1014,2 hPa 0,0 l/m 0 min 0 min 203 W/m 12,9 km/h (3 Bft) 95,74 %
08.08.2023 16:34 19,3 C 18,9 C 15,0 C 69 % 1014,2 hPa 0,0 l/m 0 min 0 min 184 W/m 16,1 km/h (3 Bft) 93,62 %
08.08.2023 16:36 19,3 C 18,9 C 15,0 C 70 % 1014,2 hPa 0,0 l/m 0 min 0 min 177 W/m 12,9 km/h (3 Bft) 93,62 %
08.08.2023 16:38 19,3 C 18,9 C 15,0 C 69 % 1014,3 hPa 0,0 l/m 0 min 0 min 169 W/m 19,3 km/h (3 Bft) 93,48 %
08.08.2023 16:40 19,3 C 18,9 C 15,0 C 70 % 1014,2 hPa 0,0 l/m 0 min 0 min 168 W/m 16,1 km/h (3 Bft) 93,62 %
08.08.2023 16:42 19,3 C 19,4 C 15,0 C 70 % 1014,2 hPa 0,0 l/m 0 min 0 min 236 W/m 19,3 km/h (3 Bft) 93,62 %
08.08.2023 16:44 19,3 C 20,0 C 15,0 C 67 % 1014,4 hPa 0,0 l/m 0 min 0 min 236 W/m 22,5 km/h (4 Bft) 91,49 %
08.08.2023 16:46 19,4 C 20,6 C 15,6 C 68 % 1014,2 hPa 0,0 l/m 0 min 0 min 236 W/m 16,1 km/h (3 Bft) 93,62 %
08.08.2023 16:48 19,5 C 21,1 C 15,6 C 67 % 1014,2 hPa 0,0 l/m 0 min 0 min 236 W/m 16,1 km/h (3 Bft) 93,62 %
08.08.2023 16:50 19,7 C 21,7 C 15,6 C 67 % 1014,3 hPa 0,0 l/m 2 min 0 min 408 W/m 16,1 km/h (3 Bft) 91,49 %
08.08.2023 16:52 19,8 C 21,7 C 15,6 C 66 % 1014,2 hPa 0,0 l/m 2 min 0 min 670 W/m 16,1 km/h (3 Bft) 91,49 %
08.08.2023 16:54 20,0 C 21,7 C 15,6 C 65 % 1014,2 hPa 0,0 l/m 2 min 0 min 660 W/m 16,1 km/h (3 Bft) 91,49 %
08.08.2023 16:56 20,1 C 21,7 C 16,1 C 65 % 1014,3 hPa 0,0 l/m 2 min 0 min 652 W/m 22,5 km/h (4 Bft) 93,62 %
08.08.2023 16:58 20,2 C 22,2 C 16,1 C 64 % 1014,4 hPa 0,0 l/m 2 min 0 min 650 W/m 16,1 km/h (3 Bft) 93,62 %
08.08.2023 17:00 20,2 C 22,8 C 16,1 C 64 % 1014,3 hPa 0,0 l/m 2 min 0 min 661 W/m 16,1 km/h (3 Bft) 95,65 %
08.08.2023 17:02 20,4 C 23,3 C 16,1 C 65 % 1014,3 hPa 0,0 l/m 2 min 0 min 699 W/m 16,1 km/h (3 Bft) 95,74 %
08.08.2023 17:04 20,4 C 22,8 C 16,1 C 64 % 1014,3 hPa 0,0 l/m 2 min 0 min 677 W/m 22,5 km/h (4 Bft) 93,62 %
08.08.2023 17:06 20,4 C 22,2 C 16,1 C 65 % 1014,3 hPa 0,0 l/m 2 min 0 min 663 W/m 12,9 km/h (3 Bft) 95,74 %
08.08.2023 17:08 20,4 C 21,1 C 16,1 C 65 % 1014,3 hPa 0,0 l/m 0 min 0 min 267 W/m 16,1 km/h (3 Bft) 93,62 %
08.08.2023 17:10 20,3 C 20,6 C 15,6 C 65 % 1014,3 hPa 0,0 l/m 0 min 0 min 230 W/m 35,4 km/h (5 Bft) 97,87 %
08.08.2023 17:12 20,2 C 20,6 C 15,6 C 66 % 1014,3 hPa 0,0 l/m 0 min 0 min 230 W/m 19,3 km/h (3 Bft) 95,74 %
08.08.2023 17:14 20,1 C 20,6 C 15,6 C 66 % 1014,3 hPa 0,0 l/m 2 min 0 min 301 W/m 16,1 km/h (3 Bft) 100,00 %
08.08.2023 17:16 20,1 C 21,7 C 15,6 C 66 % 1014,4 hPa 0,0 l/m 2 min 0 min 294 W/m 22,5 km/h (4 Bft) 97,87 %
08.08.2023 17:18 20,1 C 22,2 C 16,1 C 67 % 1014,3 hPa 0,0 l/m 2 min 0 min 561 W/m 22,5 km/h (4 Bft) 97,87 %
08.08.2023 17:20 20,2 C 22,8 C 16,1 C 67 % 1014,3 hPa 0,0 l/m 2 min 0 min 640 W/m 12,9 km/h (3 Bft) 100,00 %
08.08.2023 17:22 20,3 C 22,8 C 16,1 C 67 % 1014,2 hPa 0,0 l/m 2 min 0 min 591 W/m 16,1 km/h (3 Bft) 100,00 %
08.08.2023 17:24 20,3 C 22,8 C 16,1 C 66 % 1014,3 hPa 0,0 l/m 2 min 0 min 573 W/m 19,3 km/h (3 Bft) 97,87 %
08.08.2023 17:26 20,3 C 22,2 C 16,1 C 66 % 1014,3 hPa 0,0 l/m 2 min 0 min 560 W/m 19,3 km/h (3 Bft) 97,87 %
08.08.2023 17:28 20,3 C 21,1 C 15,6 C 65 % 1014,2 hPa 0,0 l/m 2 min 0 min 317 W/m 16,1 km/h (3 Bft) 100,00 %
08.08.2023 17:30 20,2 C 21,1 C 15,6 C 65 % 1014,2 hPa 0,0 l/m 0 min 0 min 121 W/m 19,3 km/h (3 Bft) 97,87 %
08.08.2023 17:32 20,1 C 21,1 C 15,6 C 66 % 1014,2 hPa 0,0 l/m 0 min 0 min 124 W/m 12,9 km/h (3 Bft) 100,00 %
08.08.2023 17:34 20,1 C 21,1 C 15,6 C 67 % 1014,2 hPa 0,0 l/m 0 min 0 min 214 W/m 22,5 km/h (4 Bft) 100,00 %
08.08.2023 17:36 20,1 C 20,6 C 15,6 C 66 % 1014,3 hPa 0,0 l/m 0 min 0 min 137 W/m 16,1 km/h (3 Bft) 100,00 %
08.08.2023 17:38 20,1 C 21,1 C 15,6 C 67 % 1014,3 hPa 0,0 l/m 0 min 0 min 132 W/m 12,9 km/h (3 Bft) 100,00 %
08.08.2023 17:40 20,0 C 20,6 C 15,6 C 66 % 1014,3 hPa 0,0 l/m 0 min 0 min 143 W/m 16,1 km/h (3 Bft) 100,00 %
08.08.2023 17:42 19,9 C 21,7 C 15,6 C 68 % 1014,3 hPa 0,0 l/m 2 min 0 min 293 W/m 12,9 km/h (3 Bft) 100,00 %
08.08.2023 17:44 19,9 C 21,7 C 15,6 C 67 % 1014,4 hPa 0,0 l/m 2 min 0 min 571 W/m 22,5 km/h (4 Bft) 100,00 %
08.08.2023 17:46 19,9 C 21,1 C 15,6 C 67 % 1014,4 hPa 0,0 l/m 2 min 0 min 571 W/m 19,3 km/h (3 Bft) 100,00 %
08.08.2023 17:48 19,9 C 21,1 C 15,6 C 67 % 1014,4 hPa 0,0 l/m 2 min 0 min 571 W/m 16,1 km/h (3 Bft) 100,00 %
08.08.2023 17:50 19,9 C 21,7 C 15,6 C 67 % 1014,5 hPa 0,0 l/m 2 min 0 min 475 W/m 16,1 km/h (3 Bft) 100,00 %
08.08.2023 17:52 19,9 C 20,6 C 15,6 C 67 % 1014,4 hPa 0,0 l/m 0 min 0 min 181 W/m 12,9 km/h (3 Bft) 95,74 %
08.08.2023 17:54 19,9 C 20,0 C 15,6 C 67 % 1014,3 hPa 0,0 l/m 0 min 0 min 172 W/m 16,1 km/h (3 Bft) 100,00 %
08.08.2023 17:56 19,9 C 20,0 C 15,6 C 67 % 1014,3 hPa 0,0 l/m 0 min 0 min 197 W/m 12,9 km/h (3 Bft) 100,00 %
08.08.2023 17:58 19,9 C 20,0 C 15,6 C 67 % 1014,4 hPa 0,0 l/m 0 min 0 min 212 W/m 16,1 km/h (3 Bft) 100,00 %
08.08.2023 18:00 19,9 C 20,6 C 15,6 C 68 % 1014,3 hPa 0,0 l/m 2 min 0 min 376 W/m 16,1 km/h (3 Bft) 100,00 %
08.08.2023 18:02 19,8 C 20,6 C 15,6 C 67 % 1014,3 hPa 0,0 l/m 2 min 0 min 279 W/m 22,5 km/h (4 Bft) 100,00 %
08.08.2023 18:04 19,8 C 20,6 C 15,6 C 67 % 1014,4 hPa 0,0 l/m 2 min 0 min 347 W/m 25,7 km/h (4 Bft) 100,00 %
08.08.2023 18:08 19,8 C 20,0 C 15,6 C 67 % 1014,3 hPa 0,0 l/m 4 min 0 min 234 W/m 19,3 km/h (3 Bft) 100,00 %
08.08.2023 18:14 19,8 C 19,4 C 15,6 C 67 % 1014,3 hPa 0,0 l/m 5 min 0 min 232 W/m 12,9 km/h (3 Bft) 100,00 %
08.08.2023 18:16 19,7 C 19,4 C 15,6 C 67 % 1014,3 hPa 0,0 l/m 2 min 0 min 243 W/m 12,9 km/h (3 Bft) 95,74 %
08.08.2023 18:18 19,7 C 19,4 C 15,6 C 67 % 1014,3 hPa 0,0 l/m 2 min 0 min 227 W/m 12,9 km/h (3 Bft) 95,74 %
08.08.2023 18:20 19,7 C 19,4 C 15,6 C 67 % 1014,3 hPa 0,0 l/m 0 min 0 min 194 W/m 6,4 km/h (2 Bft) 93,62 %
08.08.2023 18:22 19,7 C 19,4 C 15,6 C 67 % 1014,3 hPa 0,0 l/m 2 min 0 min 210 W/m 22,5 km/h (4 Bft) 97,83 %
08.08.2023 18:24 19,7 C 19,4 C 15,6 C 68 % 1014,3 hPa 0,0 l/m 2 min 0 min 215 W/m 16,1 km/h (3 Bft) 97,87 %
08.08.2023 18:26 19,7 C 19,4 C 15,6 C 68 % 1014,2 hPa 0,0 l/m 2 min 0 min 200 W/m 12,9 km/h (3 Bft) 100,00 %
08.08.2023 18:28 19,7 C 20,0 C 15,6 C 68 % 1014,3 hPa 0,0 l/m 2 min 2 min 238 W/m 6,4 km/h (2 Bft) 100,00 %
08.08.2023 18:30 19,7 C 20,0 C 15,6 C 70 % 1014,2 hPa 0,0 l/m 2 min 0 min 205 W/m 12,9 km/h (3 Bft) 100,00 %
08.08.2023 18:32 19,8 C 19,4 C 15,6 C 69 % 1014,2 hPa 0,0 l/m 0 min 0 min 169 W/m 12,9 km/h (3 Bft) 100,00 %
08.08.2023 18:34 19,7 C 19,4 C 15,6 C 68 % 1014,2 hPa 0,0 l/m 0 min 0 min 141 W/m 16,1 km/h (3 Bft) 100,00 %
08.08.2023 18:36 19,7 C 18,9 C 15,6 C 68 % 1014,3 hPa 0,0 l/m 0 min 0 min 112 W/m 9,7 km/h (2 Bft) 100,00 %
08.08.2023 18:38 19,6 C 18,9 C 15,0 C 68 % 1014,3 hPa 0,0 l/m 0 min 0 min 84 W/m 12,9 km/h (3 Bft) 100,00 %
08.08.2023 18:40 19,6 C 18,9 C 15,0 C 68 % 1014,2 hPa 0,0 l/m 0 min 0 min 62 W/m 19,3 km/h (3 Bft) 100,00 %
08.08.2023 18:42 19,5 C 18,3 C 15,0 C 69 % 1014,2 hPa 0,0 l/m 0 min 0 min 44 W/m 12,9 km/h (3 Bft) 97,87 %
08.08.2023 18:44 19,4 C 18,3 C 15,0 C 69 % 1014,3 hPa 0,0 l/m 0 min 0 min 28 W/m 6,4 km/h (2 Bft) 97,87 %
08.08.2023 18:46 19,4 C 18,3 C 14,4 C 70 % 1014,4 hPa 0,0 l/m 0 min 0 min 19 W/m 6,4 km/h (2 Bft) 100,00 %
08.08.2023 18:48 19,3 C 18,3 C 14,4 C 71 % 1014,4 hPa 0,0 l/m 0 min 0 min 15 W/m 12,9 km/h (3 Bft) 95,74 %
08.08.2023 18:50 19,1 C 17,8 C 14,4 C 70 % 1014,5 hPa 0,0 l/m 0 min 0 min 18 W/m 12,9 km/h (3 Bft) 100,00 %
08.08.2023 18:52 19,0 C 17,8 C 14,4 C 70 % 1014,5 hPa 0,0 l/m 0 min 2 min 24 W/m 16,1 km/h (3 Bft) 95,74 %
08.08.2023 18:54 18,8 C 17,8 C 13,9 C 70 % 1014,4 hPa 0,0 l/m 0 min 2 min 26 W/m 19,3 km/h (3 Bft) 95,74 %
08.08.2023 18:56 18,7 C 17,8 C 13,9 C 72 % 1014,4 hPa 0,0 l/m 0 min 2 min 27 W/m 6,4 km/h (2 Bft) 95,74 %
08.08.2023 18:58 18,7 C 17,2 C 13,9 C 73 % 1014,4 hPa 0,0 l/m 0 min 2 min 36 W/m 9,7 km/h (2 Bft) 95,74 %
08.08.2023 19:00 18,6 C 17,2 C 13,9 C 73 % 1014,4 hPa 0,0 l/m 0 min 2 min 43 W/m 16,1 km/h (3 Bft) 93,62 %
08.08.2023 19:02 18,4 C 17,2 C 13,3 C 74 % 1014,4 hPa 0,0 l/m 0 min 0 min 42 W/m 6,4 km/h (2 Bft) 93,48 %
08.08.2023 19:04 18,4 C 17,2 C 13,9 C 74 % 1014,4 hPa 0,0 l/m 0 min 0 min 48 W/m 9,7 km/h (2 Bft) 95,92 %
08.08.2023 19:06 18,3 C 17,2 C 13,9 C 75 % 1014,4 hPa 0,0 l/m 0 min 0 min 56 W/m 6,4 km/h (2 Bft) 95,74 %
08.08.2023 19:08 18,3 C 17,2 C 13,9 C 75 % 1014,4 hPa 0,0 l/m 0 min 0 min 47 W/m 6,4 km/h (2 Bft) 93,62 %
08.08.2023 19:10 18,3 C 17,2 C 13,9 C 75 % 1014,4 hPa 0,0 l/m 0 min 0 min 40 W/m 3,2 km/h (1 Bft) 93,62 %
08.08.2023 19:12 18,2 C 17,2 C 13,9 C 74 % 1014,3 hPa 0,0 l/m 0 min 0 min 45 W/m 9,7 km/h (2 Bft) 95,74 %
08.08.2023 19:14 18,2 C 17,2 C 13,9 C 74 % 1014,3 hPa 0,0 l/m 0 min 0 min 59 W/m 12,9 km/h (3 Bft) 95,65 %
08.08.2023 19:16 18,2 C 17,8 C 13,9 C 74 % 1014,3 hPa 0,0 l/m 0 min 2 min 64 W/m 6,4 km/h (2 Bft) 95,74 %
08.08.2023 19:18 18,2 C 17,8 C 13,9 C 75 % 1014,3 hPa 0,0 l/m 0 min 2 min 62 W/m 6,4 km/h (2 Bft) 95,74 %
08.08.2023 19:20 18,3 C 17,8 C 13,9 C 75 % 1014,3 hPa 0,0 l/m 0 min 2 min 48 W/m 6,4 km/h (2 Bft) 93,62 %
08.08.2023 19:22 18,3 C 17,2 C 13,9 C 75 % 1014,4 hPa 0,0 l/m 0 min 0 min 39 W/m 12,9 km/h (3 Bft) 95,74 %
08.08.2023 19:24 18,2 C 17,2 C 13,9 C 75 % 1014,3 hPa 0,0 l/m 0 min 0 min 36 W/m 12,9 km/h (3 Bft) 95,74 %
08.08.2023 19:26 18,2 C 17,2 C 13,9 C 75 % 1014,3 hPa 0,0 l/m 0 min 0 min 31 W/m 12,9 km/h (3 Bft) 97,87 %
08.08.2023 19:28 18,2 C 17,2 C 13,9 C 74 % 1014,2 hPa 0,0 l/m 0 min 0 min 26 W/m 19,3 km/h (3 Bft) 93,48 %
08.08.2023 19:30 18,2 C 17,2 C 13,9 C 73 % 1014,2 hPa 0,0 l/m 0 min 0 min 27 W/m 16,1 km/h (3 Bft) 93,62 %
08.08.2023 19:32 18,1 C 17,2 C 13,9 C 73 % 1014,3 hPa 0,0 l/m 0 min 0 min 33 W/m 9,7 km/h (2 Bft) 95,74 %
08.08.2023 19:34 18,1 C 17,2 C 13,9 C 73 % 1014,2 hPa 0,0 l/m 0 min 0 min 36 W/m 12,9 km/h (3 Bft) 95,74 %
08.08.2023 19:36 18,1 C 17,2 C 13,9 C 73 % 1014,2 hPa 0,0 l/m 0 min 0 min 43 W/m 9,7 km/h (2 Bft) 95,74 %
08.08.2023 19:38 18,1 C 17,2 C 13,3 C 74 % 1014,1 hPa 0,0 l/m 0 min 2 min 54 W/m 12,9 km/h (3 Bft) 95,74 %
08.08.2023 19:40 18,1 C 17,2 C 13,3 C 75 % 1014,1 hPa 0,0 l/m 0 min 0 min 64 W/m 6,4 km/h (2 Bft) 93,62 %
08.08.2023 19:42 18,1 C 17,2 C 13,3 C 74 % 1014,1 hPa 0,0 l/m 0 min 0 min 67 W/m 16,1 km/h (3 Bft) 95,65 %
08.08.2023 19:44 18,1 C 17,2 C 13,3 C 75 % 1014,1 hPa 0,0 l/m 0 min 0 min 57 W/m 22,5 km/h (4 Bft) 97,87 %
08.08.2023 19:46 18,1 C 17,2 C 13,3 C 76 % 1014,1 hPa 0,0 l/m 0 min 0 min 50 W/m 12,9 km/h (3 Bft) 97,87 %
08.08.2023 19:48 18,0 C 16,7 C 13,3 C 76 % 1014,1 hPa 0,0 l/m 0 min 2 min 54 W/m 12,9 km/h (3 Bft) 97,87 %
08.08.2023 19:50 17,9 C 16,7 C 13,3 C 77 % 1014,1 hPa 0,0 l/m 0 min 0 min 66 W/m 6,4 km/h (2 Bft) 97,87 %
08.08.2023 19:52 17,9 C 16,7 C 13,3 C 78 % 1014,1 hPa 0,0 l/m 0 min 2 min 72 W/m 3,2 km/h (1 Bft) 93,62 %
08.08.2023 19:54 17,9 C 16,7 C 13,3 C 78 % 1014,1 hPa 0,0 l/m 0 min 2 min 68 W/m 9,7 km/h (2 Bft) 97,87 %
08.08.2023 19:56 17,8 C 16,7 C 13,3 C 79 % 1014,2 hPa 0,0 l/m 0 min 2 min 59 W/m 6,4 km/h (2 Bft) 95,65 %
08.08.2023 19:58 17,8 C 16,7 C 13,3 C 79 % 1014,1 hPa 0,0 l/m 0 min 0 min 45 W/m 0,0 km/h (0 Bft) 97,87 %
08.08.2023 20:00 17,8 C 16,7 C 13,3 C 80 % 1014,1 hPa 0,0 l/m 0 min 0 min 30 W/m 0,0 km/h (0 Bft) 97,87 %
08.08.2023 20:02 17,8 C 16,7 C 12,8 C 80 % 1014,1 hPa 0,0 l/m 0 min 0 min 23 W/m 0,0 km/h (0 Bft) 95,74 %
08.08.2023 20:04 17,7 C 16,7 C 12,8 C 80 % 1014,1 hPa 0,0 l/m 0 min 0 min 19 W/m 6,4 km/h (2 Bft) 97,96 %
08.08.2023 20:06 17,7 C 16,7 C 12,8 C 80 % 1014,1 hPa 0,0 l/m 0 min 0 min 19 W/m 3,2 km/h (1 Bft) 97,87 %
08.08.2023 20:08 17,7 C 16,7 C 12,8 C 81 % 1014,1 hPa 0,0 l/m 0 min 0 min 16 W/m 6,4 km/h (2 Bft) 100,00 %
08.08.2023 20:10 17,6 C 16,7 C 12,8 C 81 % 1014,1 hPa 0,0 l/m 0 min 0 min 12 W/m 3,2 km/h (1 Bft) 100,00 %
08.08.2023 20:12 17,6 C 16,1 C 12,8 C 81 % 1014,1 hPa 0,0 l/m 0 min 0 min 13 W/m 9,7 km/h (2 Bft) 100,00 %
08.08.2023 20:14 17,5 C 16,1 C 12,8 C 81 % 1014,1 hPa 0,0 l/m 0 min 0 min 13 W/m 3,2 km/h (1 Bft) 100,00 %
08.08.2023 20:16 17,5 C 16,1 C 12,8 C 82 % 1014,2 hPa 0,0 l/m 0 min 0 min 9 W/m 3,2 km/h (1 Bft) 100,00 %
08.08.2023 20:18 17,4 C 16,1 C 12,8 C 82 % 1014,2 hPa 0,0 l/m 0 min 0 min 5 W/m 9,7 km/h (2 Bft) 100,00 %
08.08.2023 20:20 17,4 C 16,1 C 12,8 C 82 % 1014,2 hPa 0,0 l/m 0 min 0 min 1 W/m 6,4 km/h (2 Bft) 100,00 %
08.08.2023 20:22 17,3 C 16,1 C 12,8 C 82 % 1014,3 hPa 0,0 l/m 0 min 0 min 0 W/m 16,1 km/h (3 Bft) 100,00 %
08.08.2023 20:24 17,2 C 16,1 C 12,8 C 81 % 1014,4 hPa 0,0 l/m 0 min 0 min 0 W/m 12,9 km/h (3 Bft) 97,87 %
08.08.2023 20:26 17,2 C 16,1 C 12,8 C 81 % 1014,3 hPa 0,0 l/m 0 min 0 min 0 W/m 9,7 km/h (2 Bft) 100,00 %
08.08.2023 20:28 17,1 C 16,1 C 12,8 C 81 % 1014,4 hPa 0,0 l/m 0 min 0 min 0 W/m 25,7 km/h (4 Bft) 100,00 %
08.08.2023 20:30 17,1 C 16,1 C 12,2 C 81 % 1014,5 hPa 0,0 l/m 0 min 0 min 3 W/m 6,4 km/h (2 Bft) 100,00 %
08.08.2023 20:32 17,1 C 15,6 C 12,2 C 82 % 1014,4 hPa 0,0 l/m 0 min 0 min 9 W/m 22,5 km/h (4 Bft) 100,00 %
08.08.2023 20:34 16,9 C 15,6 C 12,2 C 83 % 1014,4 hPa 0,0 l/m 0 min 2 min 12 W/m 19,3 km/h (3 Bft) 97,83 %
08.08.2023 20:36 16,8 C 15,6 C 11,7 C 83 % 1014,4 hPa 0,0 l/m 0 min 2 min 11 W/m 19,3 km/h (3 Bft) 100,00 %
08.08.2023 20:38 16,8 C 15,6 C 11,7 C 84 % 1014,3 hPa 0,0 l/m 0 min 2 min 11 W/m 12,9 km/h (3 Bft) 100,00 %
08.08.2023 20:40 16,7 C 15,6 C 11,1 C 85 % 1014,2 hPa 0,0 l/m 0 min 0 min 10 W/m 16,1 km/h (3 Bft) 97,87 %
08.08.2023 20:42 16,6 C 15,6 C 11,1 C 85 % 1014,2 hPa 0,0 l/m 0 min 0 min 8 W/m 9,7 km/h (2 Bft) 97,87 %
08.08.2023 20:44 16,6 C 15,6 C 11,7 C 86 % 1014,2 hPa 0,0 l/m 0 min 0 min 7 W/m 6,4 km/h (2 Bft) 97,87 %
08.08.2023 20:46 16,6 C 15,6 C 11,7 C 86 % 1014,1 hPa 0,0 l/m 0 min 0 min 5 W/m 6,4 km/h (2 Bft) 97,83 %
08.08.2023 20:48 16,6 C 15,6 C 11,7 C 86 % 1014,1 hPa 0,0 l/m 0 min 0 min 5 W/m 3,2 km/h (1 Bft) 97,87 %
08.08.2023 20:50 16,6 C 15,6 C 11,7 C 87 % 1014,1 hPa 0,0 l/m 0 min 0 min 5 W/m 3,2 km/h (1 Bft) 97,14 %
08.08.2023 20:52 16,6 C 15,6 C 11,7 C 87 % 1014,1 hPa 0,0 l/m 0 min 0 min 5 W/m 3,2 km/h (1 Bft) 98,21 %
08.08.2023 20:54 16,6 C 15,6 C 11,7 C 87 % 1014,1 hPa 0,0 l/m 0 min 0 min 0 W/m 3,2 km/h (1 Bft) 95,74 %
08.08.2023 20:56 16,6 C 15,6 C 11,7 C 88 % 1014,1 hPa 0,0 l/m 0 min 0 min 0 W/m 0,0 km/h (0 Bft) 98,00 %
08.08.2023 20:58 16,6 C 15,6 C 11,7 C 88 % 1014,1 hPa 0,0 l/m 0 min 0 min 0 W/m 0,0 km/h (0 Bft) 95,74 %
08.08.2023 21:00 16,6 C 15,6 C 11,7 C 88 % 1014,1 hPa 0,0 l/m 0 min 0 min 0 W/m 0,0 km/h (0 Bft) 97,83 %
08.08.2023 21:02 16,6 C 15,6 C 11,7 C 88 % 1014,2 hPa 0,0 l/m 0 min 0 min 0 W/m 0,0 km/h (0 Bft) 95,74 %
08.08.2023 21:04 16,6 C 15,6 C 11,7 C 88 % 1014,2 hPa 0,0 l/m 0 min 0 min 0 W/m 0,0 km/h (0 Bft) 97,87 %
08.08.2023 21:06 16,6 C 15,6 C 11,7 C 88 % 1014,2 hPa 0,0 l/m 0 min 0 min 0 W/m 3,2 km/h (1 Bft) 97,96 %
08.08.2023 21:08 16,6 C 15,6 C 11,7 C 88 % 1014,2 hPa 0,0 l/m 0 min 0 min 0 W/m 3,2 km/h (1 Bft) 97,87 %
08.08.2023 21:10 16,6 C 15,6 C 11,7 C 88 % 1014,2 hPa 0,0 l/m 0 min 0 min 0 W/m 3,2 km/h (1 Bft) 97,87 %
08.08.2023 21:12 16,6 C 15,6 C 11,7 C 88 % 1014,1 hPa 0,0 l/m 0 min 0 min 0 W/m 6,4 km/h (2 Bft) 97,87 %
08.08.2023 21:14 16,6 C 15,6 C 11,7 C 88 % 1014,1 hPa 0,0 l/m 0 min 0 min 0 W/m 6,4 km/h (2 Bft) 97,83 %
08.08.2023 21:16 16,4 C 15,6 C 12,2 C 88 % 1014,2 hPa 0,0 l/m 0 min 0 min 0 W/m 16,1 km/h (3 Bft) 100,00 %
08.08.2023 21:18 16,4 C 15,6 C 12,2 C 88 % 1014,2 hPa 0,0 l/m 0 min 0 min 0 W/m 6,4 km/h (2 Bft) 100,00 %
08.08.2023 21:20 16,4 C 15,6 C 11,7 C 87 % 1014,3 hPa 0,0 l/m 0 min 0 min 0 W/m 6,4 km/h (2 Bft) 100,00 %
08.08.2023 21:22 16,4 C 15,6 C 11,7 C 88 % 1014,3 hPa 0,0 l/m 0 min 0 min 0 W/m 12,9 km/h (3 Bft) 98,31 %
08.08.2023 21:24 16,4 C 15,6 C 11,7 C 88 % 1014,3 hPa 0,0 l/m 0 min 0 min 0 W/m 22,5 km/h (4 Bft) 100,00 %
08.08.2023 21:26 16,3 C 15,6 C 11,1 C 88 % 1014,3 hPa 0,0 l/m 0 min 0 min 0 W/m 12,9 km/h (3 Bft) 97,87 %
08.08.2023 21:28 16,2 C 15,0 C 11,1 C 88 % 1014,4 hPa 0,0 l/m 0 min 2 min 0 W/m 12,9 km/h (3 Bft) 100,00 %
08.08.2023 21:30 16,2 C 15,0 C 11,1 C 89 % 1014,4 hPa 0,0 l/m 0 min 2 min 0 W/m 9,7 km/h (2 Bft) 100,00 %
08.08.2023 21:32 16,1 C 15,0 C 11,1 C 89 % 1014,4 hPa 0,0 l/m 0 min 2 min 0 W/m 16,1 km/h (3 Bft) 100,00 %
08.08.2023 21:34 16,1 C 15,0 C 11,1 C 90 % 1014,4 hPa 0,0 l/m 0 min 0 min 0 W/m 6,4 km/h (2 Bft) 100,00 %
08.08.2023 21:36 16,0 C 15,0 C 11,1 C 90 % 1014,4 hPa 0,0 l/m 0 min 0 min 0 W/m 12,9 km/h (3 Bft) 100,00 %
08.08.2023 21:38 15,9 C 14,4 C 10,6 C 90 % 1014,4 hPa 0,0 l/m 0 min 0 min 0 W/m 6,4 km/h (2 Bft) 100,00 %
08.08.2023 21:40 15,9 C 14,4 C 10,6 C 91 % 1014,4 hPa 0,0 l/m 0 min 0 min 0 W/m 9,7 km/h (2 Bft) 97,87 %
08.08.2023 21:42 15,8 C 14,4 C 10,6 C 91 % 1014,3 hPa 0,0 l/m 0 min 0 min 0 W/m 6,4 km/h (2 Bft) 100,00 %
08.08.2023 21:44 15,8 C 14,4 C 10,6 C 92 % 1014,3 hPa 0,0 l/m 0 min 0 min 0 W/m 6,4 km/h (2 Bft) 100,00 %
08.08.2023 21:46 15,8 C 14,4 C 10,6 C 92 % 1014,4 hPa 0,0 l/m 0 min 0 min 0 W/m 6,4 km/h (2 Bft) 97,87 %
08.08.2023 21:48 15,7 C 14,4 C 10,6 C 92 % 1014,3 hPa 0,0 l/m 0 min 0 min 0 W/m 3,2 km/h (1 Bft) 100,00 %
08.08.2023 21:50 15,7 C 14,4 C 10,6 C 92 % 1014,4 hPa 0,0 l/m 0 min 0 min 0 W/m 3,2 km/h (1 Bft) 97,87 %
08.08.2023 21:52 15,7 C 14,4 C 10,6 C 93 % 1014,3 hPa 0,0 l/m 0 min 2 min 0 W/m 3,2 km/h (1 Bft) 97,87 %
08.08.2023 21:54 15,7 C 14,4 C 10,6 C 93 % 1014,3 hPa 0,0 l/m 0 min 2 min 0 W/m 3,2 km/h (1 Bft) 95,74 %
08.08.2023 21:56 15,7 C 14,4 C 10,6 C 93 % 1014,3 hPa 0,0 l/m 0 min 2 min 0 W/m 3,2 km/h (1 Bft) 97,87 %
08.08.2023 21:58 15,7 C 14,4 C 10,6 C 93 % 1014,2 hPa 0,2 l/m 0 min 2 min 0 W/m 6,4 km/h (2 Bft) 95,65 %
08.08.2023 22:00 15,7 C 14,4 C 10,6 C 94 % 1014,3 hPa 0,0 l/m 0 min 2 min 0 W/m 6,4 km/h (2 Bft) 95,74 %
08.08.2023 22:02 15,7 C 14,4 C 10,6 C 94 % 1014,3 hPa 0,0 l/m 0 min 2 min 0 W/m 6,4 km/h (2 Bft) 95,74 %
08.08.2023 22:04 15,7 C 14,4 C 10,6 C 94 % 1014,2 hPa 0,0 l/m 0 min 2 min 0 W/m 0,0 km/h (0 Bft) 95,92 %
08.08.2023 22:06 15,7 C 14,4 C 10,6 C 94 % 1014,2 hPa 0,0 l/m 0 min 0 min 0 W/m 0,0 km/h (0 Bft) 93,94 %
08.08.2023 22:08 15,7 C 14,4 C 10,6 C 94 % 1014,2 hPa 0,0 l/m 0 min 0 min 0 W/m 0,0 km/h (0 Bft) 97,22 %
08.08.2023 22:10 15,7 C 14,4 C 10,6 C 94 % 1014,1 hPa 0,0 l/m 0 min 0 min 0 W/m 0,0 km/h (0 Bft) 91,30 %
08.08.2023 22:12 15,7 C 14,4 C 10,6 C 94 % 1014,1 hPa 0,2 l/m 0 min 0 min 0 W/m 3,2 km/h (1 Bft) 95,74 %
08.08.2023 22:14 15,7 C 14,4 C 10,6 C 94 % 1014,2 hPa 0,0 l/m 0 min 0 min 0 W/m 6,4 km/h (2 Bft) 93,62 %
08.08.2023 22:16 15,6 C 14,4 C 10,6 C 94 % 1014,1 hPa 0,0 l/m 0 min 0 min 0 W/m 0,0 km/h (0 Bft) 95,74 %
08.08.2023 22:18 15,6 C 14,4 C 10,6 C 94 % 1014,1 hPa 0,0 l/m 0 min 0 min 0 W/m 12,9 km/h (3 Bft) 95,74 %
08.08.2023 22:20 15,6 C 14,4 C 10,6 C 94 % 1014,1 hPa 0,0 l/m 0 min 0 min 0 W/m 6,4 km/h (2 Bft) 93,62 %
08.08.2023 22:22 15,6 C 14,4 C 10,6 C 94 % 1014,1 hPa 0,0 l/m 0 min 0 min 0 W/m 6,4 km/h (2 Bft) 95,65 %
08.08.2023 22:24 15,5 C 14,4 C 10,6 C 95 % 1014,0 hPa 0,0 l/m 0 min 0 min 0 W/m 3,2 km/h (1 Bft) 95,74 %
08.08.2023 22:26 15,4 C 14,4 C 10,6 C 95 % 1014,0 hPa 0,0 l/m 0 min 0 min 0 W/m 3,2 km/h (1 Bft) 95,74 %
08.08.2023 22:28 15,4 C 14,4 C 10,6 C 95 % 1013,9 hPa 0,0 l/m 0 min 0 min 0 W/m 3,2 km/h (1 Bft) 97,87 %
08.08.2023 22:30 15,4 C 14,4 C 10,6 C 95 % 1014,0 hPa 0,0 l/m 0 min 0 min 0 W/m 6,4 km/h (2 Bft) 93,62 %
08.08.2023 22:32 15,4 C 14,4 C 10,6 C 95 % 1013,9 hPa 0,0 l/m 0 min 0 min 0 W/m 12,9 km/h (3 Bft) 93,62 %
08.08.2023 22:34 15,3 C 14,4 C 10,6 C 95 % 1013,9 hPa 0,0 l/m 0 min 2 min 0 W/m 12,9 km/h (3 Bft) 95,74 %
08.08.2023 22:36 15,3 C 14,4 C 10,6 C 95 % 1013,9 hPa 0,0 l/m 0 min 2 min 0 W/m 16,1 km/h (3 Bft) 93,48 %
08.08.2023 22:38 15,3 C 14,4 C 10,6 C 95 % 1013,9 hPa 0,2 l/m 0 min 2 min 0 W/m 16,1 km/h (3 Bft) 91,49 %
08.08.2023 22:40 15,3 C 14,4 C 10,6 C 95 % 1013,8 hPa 0,0 l/m 0 min 2 min 0 W/m 9,7 km/h (2 Bft) 93,62 %
08.08.2023 22:42 15,2 C 14,4 C 10,6 C 95 % 1013,8 hPa 0,0 l/m 0 min 0 min 0 W/m 9,7 km/h (2 Bft) 95,74 %
08.08.2023 22:44 15,3 C 14,4 C 10,6 C 95 % 1013,8 hPa 0,0 l/m 0 min 2 min 0 W/m 9,7 km/h (2 Bft) 97,87 %
08.08.2023 22:46 15,3 C 14,4 C 10,6 C 95 % 1013,7 hPa 0,0 l/m 0 min 2 min 0 W/m 12,9 km/h (3 Bft) 97,87 %
08.08.2023 22:48 15,3 C 14,4 C 10,6 C 95 % 1013,7 hPa 0,0 l/m 0 min 2 min 0 W/m 9,7 km/h (2 Bft) 97,87 %
08.08.2023 22:50 15,2 C 14,4 C 10,6 C 96 % 1013,6 hPa 0,0 l/m 0 min 2 min 0 W/m 19,3 km/h (3 Bft) 95,74 %
08.08.2023 22:52 15,2 C 14,4 C 10,6 C 96 % 1013,5 hPa 0,0 l/m 0 min 0 min 0 W/m 19,3 km/h (3 Bft) 95,65 %
08.08.2023 22:54 15,2 C 14,4 C 10,6 C 96 % 1013,5 hPa 0,0 l/m 0 min 2 min 0 W/m 12,9 km/h (3 Bft) 97,87 %
08.08.2023 22:56 15,2 C 14,4 C 10,6 C 96 % 1013,5 hPa 0,0 l/m 0 min 0 min 0 W/m 3,2 km/h (1 Bft) 97,87 %
08.08.2023 22:58 15,2 C 14,4 C 10,6 C 96 % 1013,5 hPa 0,0 l/m 0 min 0 min 0 W/m 19,3 km/h (3 Bft) 100,00 %
08.08.2023 23:00 15,2 C 14,4 C 10,6 C 96 % 1013,5 hPa 0,0 l/m 0 min 2 min 0 W/m 12,9 km/h (3 Bft) 100,00 %
08.08.2023 23:02 15,2 C 14,4 C 10,6 C 96 % 1013,5 hPa 0,0 l/m 0 min 2 min 0 W/m 12,9 km/h (3 Bft) 100,00 %
08.08.2023 23:04 15,2 C 14,4 C 10,6 C 96 % 1013,5 hPa 0,2 l/m 0 min 2 min 0 W/m 12,9 km/h (3 Bft) 100,00 %
08.08.2023 23:06 15,2 C 14,4 C 10,6 C 96 % 1013,5 hPa 0,0 l/m 0 min 0 min 0 W/m 12,9 km/h (3 Bft) 100,00 %
08.08.2023 23:08 15,1 C 14,4 C 10,6 C 96 % 1013,6 hPa 0,0 l/m 0 min 0 min 0 W/m 12,9 km/h (3 Bft) 100,00 %
08.08.2023 23:10 15,1 C 14,4 C 10,6 C 96 % 1013,5 hPa 0,0 l/m 0 min 0 min 0 W/m 19,3 km/h (3 Bft) 100,00 %
08.08.2023 23:12 15,1 C 14,4 C 10,6 C 96 % 1013,5 hPa 0,0 l/m 0 min 0 min 0 W/m 12,9 km/h (3 Bft) 100,00 %
08.08.2023 23:14 15,1 C 14,4 C 10,6 C 96 % 1013,5 hPa 0,0 l/m 0 min 0 min 0 W/m 16,1 km/h (3 Bft) 100,00 %
08.08.2023 23:16 15,1 C 14,4 C 10,6 C 96 % 1013,5 hPa 0,0 l/m 0 min 2 min 0 W/m 16,1 km/h (3 Bft) 100,00 %
08.08.2023 23:18 15,1 C 14,4 C 10,6 C 96 % 1013,5 hPa 0,0 l/m 0 min 2 min 0 W/m 19,3 km/h (3 Bft) 100,00 %
08.08.2023 23:20 15,0 C 14,4 C 10,6 C 96 % 1013,5 hPa 0,0 l/m 0 min 2 min 0 W/m 12,9 km/h (3 Bft) 100,00 %
08.08.2023 23:22 15,0 C 14,4 C 10,6 C 96 % 1013,5 hPa 0,0 l/m 0 min 2 min 0 W/m 12,9 km/h (3 Bft) 100,00 %
08.08.2023 23:24 15,1 C 14,4 C 10,6 C 96 % 1013,5 hPa 0,0 l/m 0 min 2 min 0 W/m 12,9 km/h (3 Bft) 100,00 %
08.08.2023 23:26 15,1 C 14,4 C 10,6 C 96 % 1013,4 hPa 0,0 l/m 0 min 2 min 0 W/m 12,9 km/h (3 Bft) 97,87 %
08.08.2023 23:28 15,1 C 14,4 C 10,6 C 97 % 1013,4 hPa 0,0 l/m 0 min 2 min 0 W/m 6,4 km/h (2 Bft) 100,00 %
08.08.2023 23:30 15,1 C 14,4 C 10,6 C 97 % 1013,5 hPa 0,0 l/m 0 min 2 min 0 W/m 3,2 km/h (1 Bft) 100,00 %
08.08.2023 23:32 15,1 C 14,4 C 10,6 C 97 % 1013,5 hPa 0,0 l/m 0 min 2 min 0 W/m 9,7 km/h (2 Bft) 91,49 %
08.08.2023 23:34 15,1 C 14,4 C 10,6 C 97 % 1013,4 hPa 0,0 l/m 0 min 2 min 0 W/m 6,4 km/h (2 Bft) 32,00 %
08.08.2023 23:36 15,1 C 14,4 C 10,6 C 97 % 1013,4 hPa 0,0 l/m 0 min 2 min 0 W/m 6,4 km/h (2 Bft) 100,00 %
08.08.2023 23:38 15,1 C 14,4 C 10,6 C 97 % 1013,3 hPa 0,0 l/m 0 min 2 min 0 W/m 12,9 km/h (3 Bft) 100,00 %
08.08.2023 23:40 15,1 C 14,4 C 10,6 C 97 % 1013,4 hPa 0,0 l/m 0 min 0 min 0 W/m 16,1 km/h (3 Bft) 97,87 %
08.08.2023 23:42 15,1 C 14,4 C 10,6 C 97 % 1013,3 hPa 0,0 l/m 0 min 0 min 0 W/m 12,9 km/h (3 Bft) 100,00 %
08.08.2023 23:44 15,1 C 14,4 C 10,6 C 97 % 1013,3 hPa 0,0 l/m 0 min 2 min 0 W/m 6,4 km/h (2 Bft) 97,83 %
08.08.2023 23:46 15,1 C 14,4 C 10,6 C 97 % 1013,2 hPa 0,0 l/m 0 min 2 min 0 W/m 6,4 km/h (2 Bft) 100,00 %
08.08.2023 23:48 15,1 C 14,4 C 10,6 C 97 % 1013,1 hPa 0,0 l/m 0 min 2 min 0 W/m 12,9 km/h (3 Bft) 100,00 %
08.08.2023 23:50 15,0 C 14,4 C 10,6 C 97 % 1013,0 hPa 0,0 l/m 0 min 0 min 0 W/m 16,1 km/h (3 Bft) 100,00 %
08.08.2023 23:52 15,0 C 14,4 C 10,6 C 97 % 1013,0 hPa 0,0 l/m 0 min 0 min 0 W/m 9,7 km/h (2 Bft) 100,00 %
08.08.2023 23:54 15,0 C 14,4 C 10,6 C 97 % 1013,0 hPa 0,0 l/m 0 min 0 min 0 W/m 6,4 km/h (2 Bft) 97,87 %
08.08.2023 23:56 15,0 C 14,4 C 10,6 C 97 % 1013,0 hPa 0,0 l/m 0 min 0 min 0 W/m 12,9 km/h (3 Bft) 97,87 %
08.08.2023 23:58 15,0 C 14,4 C 10,6 C 97 % 1013,0 hPa 0,0 l/m 0 min 0 min 0 W/m 12,9 km/h (3 Bft) 100,00 %
_ Min-Zeit 05:58 05:46 05:50 16:58 23:50 - - - - 00:00 23:34
Minimum _ 13,2 C 12,2 C 8,9 C 64 % 1013,0 hPa - - - - 0,0 km/h (0 Bft) 32,00 %
_ Max-Zeit 17:02 14:26 16:56 23:28 00:00 21:58 18:14 12:26 14:28 14:00 00:40
Maximum _ 20,4 C 23,9 C 16,1 C 97 % 1016,5 hPa 0,2 l/m 5 min 2 min 1061 W/m 35,4 km/h
S (5 Bft)
100,00 %
Durchschnitt _ 16,1 C 15,8 C 12,0 C 84 % 1014,6 hPa #0,8 l/m #3:11 h #1:56 h 211 W/m 12,4 km/h (3 Bft) 97,42 %
© 2023 W. Hausmann